Time,TemperatureF,DewpointF,PressureIn,WindDirection,WindDirectionDegrees,WindSpeedMPH,WindSpeedGustMPH,Humidity,HourlyPrecipIn,Conditions,Clouds,dailyrainin,SolarRadiationWatts/m^2,SoftwareType,DateUTC
2013-02-08 00:00:00,71.2,68.8,30.00,SE,126,1.0,3.0,92,0.00,,FEW,0.00,0.00,VWS V14.01,2013-02-08 05:00:00,
2013-02-08 00:01:00,71.3,68.9,30.00,SE,128,0.0,3.0,92,0.00,,FEW,0.00,0.00,VWS V14.01,2013-02-08 05:01:00,
2013-02-08 00:05:00,71.4,69.0,30.00,SE,144,1.0,3.0,92,0.00,,FEW,0.00,0.00,VWS V14.01,2013-02-08 05:05:00,
2013-02-08 00:06:00,71.5,69.1,30.00,SE,144,2.0,3.0,92,0.00,,FEW,0.00,0.00,VWS V14.01,2013-02-08 05:06:00,
2013-02-08 00:10:00,71.6,69.2,30.00,SE,137,2.0,4.0,92,0.00,,FEW,0.00,0.00,VWS V14.01,2013-02-08 05:10:00,
2013-02-08 00:11:00,71.7,69.3,30.00,SE,133,3.0,4.0,92,0.00,,FEW,0.00,0.00,VWS V14.01,2013-02-08 05:11:00,
2013-02-08 00:15:00,71.7,69.3,30.00,SSE,148,1.0,3.0,92,0.00,,FEW,0.00,0.00,VWS V14.01,2013-02-08 05:15:00,
2013-02-08 00:16:00,71.8,69.3,30.00,SE,125,1.0,3.0,92,0.00,,FEW,0.00,0.00,VWS V14.01,2013-02-08 05:16:00,
2013-02-08 00:20:00,71.8,69.3,30.00,SE,125,1.0,3.0,92,0.00,,FEW,0.00,0.00,VWS V14.01,2013-02-08 05:20:00,
2013-02-08 00:21:00,71.8,69.3,30.00,SE,125,1.0,3.0,92,0.00,,FEW,0.00,0.00,VWS V14.01,2013-02-08 05:21:00,
2013-02-08 00:25:00,71.9,69.4,30.00,SE,138,0.0,2.0,92,0.00,,FEW,0.00,0.00,VWS V14.01,2013-02-08 05:25:00,
2013-02-08 00:26:00,71.9,69.4,30.00,SE,138,2.0,2.0,92,0.00,,FEW,0.00,0.00,VWS V14.01,2013-02-08 05:26:00,
2013-02-08 00:30:00,71.9,69.4,30.00,SE,140,2.0,3.0,92,0.00,,FEW,0.00,0.00,VWS V14.01,2013-02-08 05:30:00,
2013-02-08 00:31:00,71.9,69.4,29.99,SE,140,2.0,3.0,92,0.00,,FEW,0.00,0.00,VWS V14.01,2013-02-08 05:31:00,
2013-02-08 00:35:00,72.0,69.6,29.99,SE,138,2.0,4.0,92,0.00,,FEW,0.00,0.00,VWS V14.01,2013-02-08 05:35:00,
2013-02-08 00:36:00,72.0,69.6,29.99,SE,138,0.0,4.0,92,0.00,,FEW,0.00,0.00,VWS V14.01,2013-02-08 05:36:00,
2013-02-08 00:40:00,72.1,69.7,29.99,SSE,150,2.0,4.0,92,0.00,,FEW,0.00,0.00,VWS V14.01,2013-02-08 05:40:00,
2013-02-08 00:41:00,72.1,69.7,29.99,SE,143,3.0,4.0,92,0.00,,FEW,0.00,0.00,VWS V14.01,2013-02-08 05:41:00,
2013-02-08 00:45:00,72.3,69.8,29.98,SSE,162,3.0,5.0,92,0.00,,FEW,0.00,0.00,VWS V14.01,2013-02-08 05:45:00,
2013-02-08 00:46:00,72.2,69.8,29.98,SSW,194,3.0,5.0,92,0.00,,FEW,0.00,0.00,VWS V14.01,2013-02-08 05:46:00,
2013-02-08 00:50:00,72.4,69.9,29.98,SSE,153,2.0,5.0,92,0.00,,FEW,0.00,0.00,VWS V14.01,2013-02-08 05:50:00,
2013-02-08 00:51:00,72.4,69.9,29.98,SE,136,3.0,5.0,92,0.00,,FEW,0.00,0.00,VWS V14.01,2013-02-08 05:51:00,
2013-02-08 00:55:00,72.5,70.1,29.98,South,181,2.0,4.0,92,0.00,,FEW,0.00,0.00,VWS V14.01,2013-02-08 05:55:00,
2013-02-08 00:56:00,72.5,70.1,29.98,SE,140,2.0,4.0,92,0.00,,FEW,0.00,0.00,VWS V14.01,2013-02-08 05:56:00,
2013-02-08 01:00:00,72.6,70.2,29.98,SSE,150,5.0,5.0,92,0.00,,FEW,0.00,0.00,VWS V14.01,2013-02-08 06:00:00,
2013-02-08 01:01:00,72.6,70.2,29.98,SSE,147,2.0,5.0,92,0.00,,FEW,0.00,0.00,VWS V14.01,2013-02-08 06:01:00,
2013-02-08 01:02:00,72.6,70.2,29.98,SSE,150,0.0,2.0,92,0.00,,FEW,0.00,0.00,VWS V14.01,2013-02-08 06:02:00,
2013-02-08 01:05:00,72.7,70.2,29.98,SSE,158,1.0,4.0,92,0.00,,FEW,0.00,0.00,VWS V14.01,2013-02-08 06:05:00,
2013-02-08 01:06:00,72.6,70.2,29.98,SSE,158,1.0,4.0,92,0.00,,FEW,0.00,0.00,VWS V14.01,2013-02-08 06:06:00,
2013-02-08 01:07:00,72.7,70.2,29.98,South,169,3.0,5.0,92,0.00,,FEW,0.00,0.00,VWS V14.01,2013-02-08 06:07:00,
2013-02-08 01:11:00,72.7,70.2,29.98,SE,126,0.0,5.0,92,0.00,,FEW,0.00,0.00,VWS V14.01,2013-02-08 06:11:00,
2013-02-08 01:12:00,72.7,70.2,29.98,SE,134,3.0,4.0,92,0.00,,FEW,0.00,0.00,VWS V14.01,2013-02-08 06:12:00,
2013-02-08 01:16:00,72.8,70.3,29.97,SSE,163,3.0,4.0,92,0.00,,FEW,0.00,0.00,VWS V14.01,2013-02-08 06:16:00,
2013-02-08 01:17:00,72.8,70.3,29.97,SE,140,2.0,4.0,92,0.00,,FEW,0.00,0.00,VWS V14.01,2013-02-08 06:17:00,
2013-02-08 01:21:00,72.8,70.3,29.97,South,173,4.0,4.0,92,0.00,,FEW,0.00,0.00,VWS V14.01,2013-02-08 06:21:00,
2013-02-08 01:22:00,72.8,70.3,29.97,SE,137,3.0,5.0,92,0.00,,FEW,0.00,0.00,VWS V14.01,2013-02-08 06:22:00,
2013-02-08 01:26:00,72.9,70.4,29.97,South,189,4.0,5.0,92,0.00,,FEW,0.00,0.00,VWS V14.01,2013-02-08 06:26:00,
2013-02-08 01:27:00,72.9,70.4,29.97,SSW,209,4.0,5.0,92,0.00,,FEW,0.00,0.00,VWS V14.01,2013-02-08 06:27:00,
2013-02-08 01:31:00,72.9,70.4,29.97,South,169,2.0,5.0,92,0.00,,FEW,0.00,0.00,VWS V14.01,2013-02-08 06:31:00,
2013-02-08 01:32:00,72.9,70.4,29.97,South,171,2.0,6.0,92,0.00,,FEW,0.00,0.00,VWS V14.01,2013-02-08 06:32:00,
2013-02-08 01:36:00,72.9,70.4,29.97,SSW,198,3.0,6.0,92,0.00,,FEW,0.00,0.00,VWS V14.01,2013-02-08 06:36:00,
2013-02-08 01:37:00,72.9,70.4,29.97,South,189,1.0,6.0,92,0.00,,FEW,0.00,0.00,VWS V14.01,2013-02-08 06:37:00,
2013-02-08 01:38:00,72.9,70.4,29.97,SSE,161,2.0,6.0,92,0.00,,FEW,0.00,0.00,VWS V14.01,2013-02-08 06:38:00,
2013-02-08 01:41:00,72.9,70.4,29.97,South,179,2.0,6.0,92,0.00,,FEW,0.00,0.00,VWS V14.01,2013-02-08 06:41:00,
2013-02-08 01:42:00,73.0,70.5,29.97,SSE,150,3.0,4.0,92,0.00,,FEW,0.00,0.00,VWS V14.01,2013-02-08 06:42:00,
2013-02-08 01:43:00,73.0,70.5,29.97,South,174,3.0,5.0,92,0.00,,FEW,0.00,0.00,VWS V14.01,2013-02-08 06:43:00,
2013-02-08 01:46:00,72.9,70.4,29.97,SSW,197,3.0,5.0,92,0.00,,FEW,0.00,0.00,VWS V14.01,2013-02-08 06:46:00,
2013-02-08 01:47:00,72.9,70.4,29.97,SSE,148,2.0,5.0,92,0.00,,FEW,0.00,0.00,VWS V14.01,2013-02-08 06:47:00,
2013-02-08 01:48:00,73.0,70.5,29.97,South,180,3.0,5.0,92,0.00,,FEW,0.00,0.00,VWS V14.01,2013-02-08 06:48:00,
2013-02-08 01:51:00,72.9,70.4,29.97,South,187,2.0,5.0,92,0.00,,FEW,0.00,0.00,VWS V14.01,2013-02-08 06:51:00,
2013-02-08 01:52:00,72.9,70.4,29.97,South,177,2.0,3.0,92,0.00,,FEW,0.00,0.00,VWS V14.01,2013-02-08 06:52:00,
2013-02-08 01:53:00,73.0,70.5,29.97,South,188,3.0,5.0,92,0.00,,FEW,0.00,0.00,VWS V14.01,2013-02-08 06:53:00,
2013-02-08 01:54:00,73.0,70.5,29.97,SSE,168,2.0,5.0,92,0.00,,FEW,0.00,0.00,VWS V14.01,2013-02-08 06:54:00,
2013-02-08 01:56:00,73.0,70.5,29.97,SSE,167,2.0,5.0,92,0.00,,FEW,0.00,0.00,VWS V14.01,2013-02-08 06:56:00,
2013-02-08 01:57:00,73.0,70.5,29.97,SSE,159,1.0,5.0,92,0.00,,FEW,0.00,0.00,VWS V14.01,2013-02-08 06:57:00,
2013-02-08 01:58:00,73.0,70.5,29.97,SSW,198,3.0,5.0,92,0.00,,FEW,0.00,0.00,VWS V14.01,2013-02-08 06:58:00,
2013-02-08 01:59:00,73.0,70.5,29.97,South,178,1.0,5.0,92,0.00,,FEW,0.00,0.00,VWS V14.01,2013-02-08 06:59:00,
2013-02-08 02:01:00,73.0,70.5,29.96,South,186,2.0,2.0,92,0.00,,FEW,0.00,0.00,VWS V14.01,2013-02-08 07:01:00,
2013-02-08 02:02:00,73.0,70.5,29.96,SSW,194,2.0,3.0,92,0.00,,FEW,0.00,0.00,VWS V14.01,2013-02-08 07:02:00,
2013-02-08 02:03:00,73.0,70.5,29.96,South,182,2.0,4.0,92,0.00,,FEW,0.00,0.00,VWS V14.01,2013-02-08 07:03:00,
2013-02-08 02:04:00,73.0,70.5,29.96,South,169,2.0,4.0,92,0.00,,FEW,0.00,0.00,VWS V14.01,2013-02-08 07:04:00,
2013-02-08 02:06:00,73.1,70.6,29.96,SSW,203,3.0,7.0,92,0.00,,FEW,0.00,0.00,VWS V14.01,2013-02-08 07:06:00,
2013-02-08 02:07:00,73.1,70.6,29.96,South,179,2.0,7.0,92,0.00,,FEW,0.00,0.00,VWS V14.01,2013-02-08 07:07:00,
2013-02-08 02:08:00,73.1,70.6,29.96,South,175,2.0,7.0,92,0.00,,FEW,0.00,0.00,VWS V14.01,2013-02-08 07:08:00,
2013-02-08 02:09:00,73.1,70.6,29.96,SSE,148,3.0,7.0,92,0.00,,FEW,0.00,0.00,VWS V14.01,2013-02-08 07:09:00,
2013-02-08 02:12:00,73.1,70.6,29.96,SSW,199,4.0,4.0,92,0.00,,FEW,0.00,0.00,VWS V14.01,2013-02-08 07:12:00,
2013-02-08 02:13:00,73.1,70.6,29.96,South,169,2.0,4.0,92,0.00,,FEW,0.00,0.00,VWS V14.01,2013-02-08 07:13:00,
2013-02-08 02:14:00,73.1,70.6,29.96,SSE,161,4.0,5.0,92,0.00,,FEW,0.00,0.00,VWS V14.01,2013-02-08 07:14:00,
2013-02-08 02:17:00,73.1,70.6,29.95,SSW,196,3.0,5.0,92,0.00,,FEW,0.00,0.00,VWS V14.01,2013-02-08 07:17:00,
2013-02-08 02:18:00,73.1,70.6,29.95,SSE,168,3.0,5.0,92,0.00,,FEW,0.00,0.00,VWS V14.01,2013-02-08 07:18:00,
2013-02-08 02:19:00,73.1,70.6,29.95,SSW,207,4.0,5.0,92,0.00,,FEW,0.00,0.00,VWS V14.01,2013-02-08 07:19:00,
2013-02-08 02:22:00,73.1,70.6,29.95,South,191,2.0,3.0,92,0.00,,FEW,0.00,0.00,VWS V14.01,2013-02-08 07:22:00,
2013-02-08 02:23:00,73.1,70.6,29.95,South,188,2.0,3.0,92,0.00,,FEW,0.00,0.00,VWS V14.01,2013-02-08 07:23:00,
2013-02-08 02:24:00,73.1,70.6,29.95,SSW,192,3.0,4.0,92,0.00,,FEW,0.00,0.00,VWS V14.01,2013-02-08 07:24:00,
2013-02-08 02:27:00,73.1,70.6,29.95,SSE,163,2.0,5.0,92,0.00,,FEW,0.00,0.00,VWS V14.01,2013-02-08 07:27:00,
2013-02-08 02:28:00,73.2,70.7,29.95,South,172,4.0,6.0,92,0.00,,FEW,0.00,0.00,VWS V14.01,2013-02-08 07:28:00,
2013-02-08 02:29:00,73.2,70.7,29.95,South,180,4.0,6.0,92,0.00,,FEW,0.00,0.00,VWS V14.01,2013-02-08 07:29:00,
2013-02-08 02:32:00,73.2,70.7,29.94,SSE,161,2.0,3.0,92,0.00,,FEW,0.00,0.00,VWS V14.01,2013-02-08 07:32:00,
2013-02-08 02:33:00,73.2,70.7,29.94,SSW,199,2.0,4.0,92,0.00,,FEW,0.00,0.00,VWS V14.01,2013-02-08 07:33:00,
2013-02-08 02:34:00,73.2,70.7,29.94,SSW,205,4.0,4.0,92,0.00,,FEW,0.00,0.00,VWS V14.01,2013-02-08 07:34:00,
2013-02-08 02:37:00,73.2,70.7,29.94,SSE,166,2.0,5.0,92,0.00,,FEW,0.00,0.00,VWS V14.01,2013-02-08 07:37:00,
2013-02-08 02:38:00,73.2,70.7,29.94,South,175,3.0,5.0,92,0.00,,FEW,0.00,0.00,VWS V14.01,2013-02-08 07:38:00,
2013-02-08 02:39:00,73.2,70.7,29.94,SSW,203,2.0,5.0,92,0.00,,FEW,0.00,0.00,VWS V14.01,2013-02-08 07:39:00,
2013-02-08 02:42:00,73.2,70.7,29.94,SSE,155,4.0,4.0,92,0.00,,FEW,0.00,0.00,VWS V14.01,2013-02-08 07:42:00,
2013-02-08 02:43:00,73.3,70.8,29.94,South,174,3.0,6.0,92,0.00,,FEW,0.00,0.00,VWS V14.01,2013-02-08 07:43:00,
2013-02-08 02:44:00,73.3,70.8,29.94,South,180,4.0,6.0,92,0.00,,FEW,0.00,0.00,VWS V14.01,2013-02-08 07:44:00,
2013-02-08 02:48:00,73.3,70.8,29.94,South,182,5.0,7.0,92,0.00,,FEW,0.00,0.00,VWS V14.01,2013-02-08 07:48:00,
2013-02-08 02:49:00,73.2,70.7,29.94,SSE,164,5.0,7.0,92,0.00,,FEW,0.00,0.00,VWS V14.01,2013-02-08 07:49:00,
2013-02-08 02:53:00,73.3,70.8,29.94,South,173,3.0,5.0,92,0.00,,FEW,0.00,0.00,VWS V14.01,2013-02-08 07:53:00,
2013-02-08 02:54:00,73.3,70.8,29.94,South,186,4.0,5.0,92,0.00,,FEW,0.00,0.00,VWS V14.01,2013-02-08 07:54:00,
2013-02-08 02:58:00,73.3,70.8,29.94,South,171,5.0,7.0,92,0.00,,FEW,0.00,0.00,VWS V14.01,2013-02-08 07:58:00,
2013-02-08 02:59:00,73.3,70.8,29.94,South,189,5.0,7.0,92,0.00,,FEW,0.00,0.00,VWS V14.01,2013-02-08 07:59:00,
2013-02-08 03:00:00,73.3,70.8,29.94,SW,225,5.0,7.0,92,0.00,,FEW,0.00,0.00,VWS V14.01,2013-02-08 08:00:00,
2013-02-08 03:03:00,73.3,70.8,29.94,South,173,5.0,8.0,92,0.00,,FEW,0.00,0.00,VWS V14.01,2013-02-08 08:03:00,
2013-02-08 03:04:00,73.3,70.8,29.94,South,173,5.0,8.0,92,0.00,,FEW,0.00,0.00,VWS V14.01,2013-02-08 08:04:00,
2013-02-08 03:05:00,73.4,70.9,29.94,SSW,207,4.0,8.0,92,0.00,,FEW,0.00,0.00,VWS V14.01,2013-02-08 08:05:00,
2013-02-08 03:08:00,73.4,70.9,29.94,South,172,2.0,8.0,92,0.00,,FEW,0.00,0.00,VWS V14.01,2013-02-08 08:08:00,
2013-02-08 03:09:00,73.3,70.8,29.94,SSW,195,3.0,8.0,92,0.00,,FEW,0.00,0.00,VWS V14.01,2013-02-08 08:09:00,
2013-02-08 03:10:00,73.3,70.8,29.94,SSW,207,4.0,8.0,92,0.00,,FEW,0.00,0.00,VWS V14.01,2013-02-08 08:10:00,
2013-02-08 03:13:00,73.3,70.8,29.94,SW,215,5.0,6.0,92,0.00,,FEW,0.00,0.00,VWS V14.01,2013-02-08 08:13:00,
2013-02-08 03:14:00,73.3,70.8,29.94,SSW,193,2.0,6.0,92,0.00,,FEW,0.00,0.00,VWS V14.01,2013-02-08 08:14:00,
2013-02-08 03:15:00,73.3,70.8,29.94,SSW,199,5.0,7.0,92,0.00,,FEW,0.00,0.00,VWS V14.01,2013-02-08 08:15:00,
2013-02-08 03:18:00,73.3,70.8,29.94,SSE,153,5.0,7.0,92,0.00,,FEW,0.00,0.00,VWS V14.01,2013-02-08 08:18:00,
2013-02-08 03:19:00,73.3,70.8,29.94,SSE,163,5.0,7.0,92,0.00,,FEW,0.00,0.00,VWS V14.01,2013-02-08 08:19:00,
2013-02-08 03:20:00,73.4,70.9,29.94,South,190,4.0,7.0,92,0.00,,FEW,0.00,0.00,VWS V14.01,2013-02-08 08:20:00,
2013-02-08 03:23:00,73.4,70.9,29.94,South,189,5.0,7.0,92,0.00,,FEW,0.00,0.00,VWS V14.01,2013-02-08 08:23:00,
2013-02-08 03:24:00,73.4,70.9,29.94,South,188,4.0,7.0,92,0.00,,FEW,0.00,0.00,VWS V14.01,2013-02-08 08:24:00,
2013-02-08 03:25:00,73.4,70.9,29.94,SW,221,5.0,7.0,92,0.00,,FEW,0.00,0.00,VWS V14.01,2013-02-08 08:25:00,
2013-02-08 03:28:00,73.4,70.9,29.94,South,182,6.0,7.0,92,0.00,,FEW,0.00,0.00,VWS V14.01,2013-02-08 08:28:00,
2013-02-08 03:29:00,73.4,70.9,29.94,SSE,167,6.0,7.0,92,0.00,,FEW,0.00,0.00,VWS V14.01,2013-02-08 08:29:00,
2013-02-08 03:30:00,73.4,70.9,29.94,SSW,199,4.0,8.0,92,0.00,,FEW,0.00,0.00,VWS V14.01,2013-02-08 08:30:00,
2013-02-08 03:34:00,73.4,70.9,29.94,SW,220,8.0,8.0,92,0.00,,FEW,0.00,0.00,VWS V14.01,2013-02-08 08:34:00,
2013-02-08 03:35:00,73.4,70.9,29.94,South,180,8.0,8.0,92,0.00,,FEW,0.00,0.00,VWS V14.01,2013-02-08 08:35:00,
2013-02-08 03:39:00,73.4,70.9,29.94,SSW,202,5.0,8.0,92,0.00,,FEW,0.00,0.00,VWS V14.01,2013-02-08 08:39:00,
2013-02-08 03:40:00,73.4,70.9,29.94,SSW,209,4.0,8.0,92,0.00,,FEW,0.00,0.00,VWS V14.01,2013-02-08 08:40:00,
2013-02-08 03:44:00,73.5,71.0,29.94,SSW,207,6.0,10.0,92,0.00,,FEW,0.00,0.00,VWS V14.01,2013-02-08 08:44:00,
2013-02-08 03:45:00,73.5,71.0,29.94,SSW,209,7.0,11.0,92,0.00,,FEW,0.00,0.00,VWS V14.01,2013-02-08 08:45:00,
2013-02-08 03:49:00,73.4,70.6,29.94,SSW,211,4.0,11.0,91,0.00,,FEW,0.00,0.00,VWS V14.01,2013-02-08 08:49:00,
2013-02-08 03:50:00,73.4,70.6,29.94,SSW,196,6.0,11.0,91,0.00,,FEW,0.00,0.00,VWS V14.01,2013-02-08 08:50:00,
2013-02-08 03:51:00,73.5,71.0,29.94,SSW,209,8.0,11.0,92,0.00,,FEW,0.00,0.00,VWS V14.01,2013-02-08 08:51:00,
2013-02-08 03:54:00,73.5,70.7,29.94,SSW,202,6.0,9.0,91,0.00,,FEW,0.00,0.00,VWS V14.01,2013-02-08 08:54:00,
2013-02-08 03:55:00,73.4,70.6,29.94,South,190,6.0,9.0,91,0.00,,FEW,0.00,0.00,VWS V14.01,2013-02-08 08:55:00,
2013-02-08 03:56:00,73.4,70.6,29.94,South,175,5.0,9.0,91,0.00,,FEW,0.00,0.00,VWS V14.01,2013-02-08 08:56:00,
2013-02-08 03:59:00,73.5,70.7,29.94,SSW,211,6.0,9.0,91,0.00,,FEW,0.00,0.00,VWS V14.01,2013-02-08 08:59:00,
2013-02-08 04:00:00,73.5,70.7,29.94,South,187,5.0,9.0,91,0.00,,FEW,0.00,0.00,VWS V14.01,2013-02-08 09:00:00,
2013-02-08 04:01:00,73.5,70.7,29.94,South,186,8.0,8.0,91,0.00,,FEW,0.00,0.00,VWS V14.01,2013-02-08 09:01:00,
2013-02-08 04:04:00,73.6,70.8,29.94,South,181,7.0,9.0,91,0.00,,FEW,0.00,0.00,VWS V14.01,2013-02-08 09:04:00,
2013-02-08 04:05:00,73.6,70.8,29.94,SSE,168,5.0,10.0,91,0.00,,FEW,0.00,0.00,VWS V14.01,2013-02-08 09:05:00,
2013-02-08 04:06:00,73.6,70.8,29.94,SSW,196,6.0,10.0,91,0.00,,FEW,0.00,0.00,VWS V14.01,2013-02-08 09:06:00,
2013-02-08 04:09:00,73.6,70.8,29.94,SSW,193,6.0,10.0,91,0.00,,FEW,0.00,0.00,VWS V14.01,2013-02-08 09:09:00,
2013-02-08 04:10:00,73.6,70.8,29.94,SW,221,7.0,10.0,91,0.00,,FEW,0.00,0.00,VWS V14.01,2013-02-08 09:10:00,
2013-02-08 04:11:00,73.6,70.8,29.94,SSW,209,1.0,10.0,91,0.00,,FEW,0.00,0.00,VWS V14.01,2013-02-08 09:11:00,
2013-02-08 04:12:00,73.6,70.8,29.94,South,178,7.0,7.0,91,0.00,,FEW,0.00,0.00,VWS V14.01,2013-02-08 09:12:00,
2013-02-08 04:14:00,73.6,70.8,29.94,SW,222,5.0,9.0,91,0.00,,FEW,0.00,0.00,VWS V14.01,2013-02-08 09:14:00,
2013-02-08 04:15:00,73.7,70.9,29.94,SSW,211,9.0,10.0,91,0.00,,FEW,0.00,0.00,VWS V14.01,2013-02-08 09:15:00,
2013-02-08 04:16:00,73.7,70.9,29.94,SW,215,8.0,10.0,91,0.00,,FEW,0.00,0.00,VWS V14.01,2013-02-08 09:16:00,
2013-02-08 04:17:00,73.7,70.9,29.94,SW,215,7.0,10.0,91,0.00,,FEW,0.00,0.00,VWS V14.01,2013-02-08 09:17:00,
2013-02-08 04:19:00,73.7,70.9,29.94,SSW,194,7.0,11.0,91,0.00,,FEW,0.00,0.00,VWS V14.01,2013-02-08 09:19:00,
2013-02-08 04:20:00,73.7,70.9,29.94,SSW,196,6.0,11.0,91,0.00,,FEW,0.00,0.00,VWS V14.01,2013-02-08 09:20:00,
2013-02-08 04:21:00,73.7,70.9,29.94,SW,220,7.0,11.0,91,0.00,,FEW,0.00,0.00,VWS V14.01,2013-02-08 09:21:00,
2013-02-08 04:22:00,73.8,71.0,29.94,SSW,210,7.0,8.0,91,0.00,,FEW,0.00,0.00,VWS V14.01,2013-02-08 09:22:00,
2013-02-08 04:24:00,73.7,70.9,29.94,SSW,193,7.0,11.0,91,0.00,,FEW,0.00,0.00,VWS V14.01,2013-02-08 09:24:00,
2013-02-08 04:26:00,73.7,70.9,29.94,SSW,196,9.0,11.0,91,0.00,,FEW,0.00,0.00,VWS V14.01,2013-02-08 09:26:00,
2013-02-08 04:27:00,73.7,70.9,29.94,South,182,8.0,11.0,91,0.00,,FEW,0.00,0.00,VWS V14.01,2013-02-08 09:27:00,
2013-02-08 04:29:00,73.7,70.9,29.94,SSW,210,8.0,12.0,91,0.00,,FEW,0.00,0.00,VWS V14.01,2013-02-08 09:29:00,
2013-02-08 04:31:00,73.7,70.9,29.93,SSE,167,9.0,12.0,91,0.00,,FEW,0.00,0.00,VWS V14.01,2013-02-08 09:31:00,
2013-02-08 04:32:00,73.7,70.9,29.93,SSW,208,7.0,10.0,91,0.00,,FEW,0.00,0.00,VWS V14.01,2013-02-08 09:32:00,
2013-02-08 04:34:00,73.8,71.0,29.93,South,188,7.0,10.0,91,0.00,,FEW,0.00,0.00,VWS V14.01,2013-02-08 09:34:00,
2013-02-08 04:36:00,73.8,71.0,29.93,SW,222,6.0,10.0,91,0.00,,FEW,0.00,0.00,VWS V14.01,2013-02-08 09:36:00,
2013-02-08 04:37:00,73.8,71.0,29.93,South,188,3.0,10.0,91,0.00,,FEW,0.00,0.00,VWS V14.01,2013-02-08 09:37:00,
2013-02-08 04:39:00,73.8,71.0,29.93,SSW,200,5.0,10.0,91,0.00,,FEW,0.00,0.00,VWS V14.01,2013-02-08 09:39:00,
2013-02-08 04:41:00,73.9,71.1,29.93,SSW,194,6.0,10.0,91,0.00,,FEW,0.00,0.00,VWS V14.01,2013-02-08 09:41:00,
2013-02-08 04:42:00,73.9,71.1,29.93,SW,217,9.0,9.0,91,0.00,,FEW,0.00,0.00,VWS V14.01,2013-02-08 09:42:00,
2013-02-08 04:44:00,73.9,71.1,29.93,South,186,4.0,9.0,91,0.00,,FEW,0.00,0.00,VWS V14.01,2013-02-08 09:44:00,
2013-02-08 04:46:00,73.9,71.1,29.93,SSW,200,7.0,9.0,91,0.00,,FEW,0.00,0.00,VWS V14.01,2013-02-08 09:46:00,
2013-02-08 04:47:00,73.9,71.1,29.93,WSW,239,9.0,9.0,91,0.00,,FEW,0.00,0.00,VWS V14.01,2013-02-08 09:47:00,
2013-02-08 04:49:00,73.8,71.0,29.93,SSW,207,7.0,9.0,91,0.00,,FEW,0.00,0.00,VWS V14.01,2013-02-08 09:49:00,
2013-02-08 04:51:00,73.8,71.0,29.93,SW,223,6.0,11.0,91,0.00,,FEW,0.00,0.00,VWS V14.01,2013-02-08 09:51:00,
2013-02-08 04:52:00,73.9,71.1,29.93,SSW,202,4.0,7.0,91,0.00,,FEW,0.00,0.00,VWS V14.01,2013-02-08 09:52:00,
2013-02-08 04:54:00,73.9,71.1,29.93,SSW,202,6.0,10.0,91,0.00,,FEW,0.00,0.00,VWS V14.01,2013-02-08 09:54:00,
2013-02-08 04:56:00,73.9,71.1,29.93,SSW,209,8.0,10.0,91,0.00,,FEW,0.00,0.00,VWS V14.01,2013-02-08 09:56:00,
2013-02-08 04:57:00,73.9,71.1,29.93,SSW,207,7.0,10.0,91,0.00,,FEW,0.00,0.00,VWS V14.01,2013-02-08 09:57:00,
2013-02-08 05:00:00,73.9,71.1,29.93,SSW,209,3.0,10.0,91,0.00,,FEW,0.00,0.00,VWS V14.01,2013-02-08 10:00:00,
2013-02-08 05:01:00,73.9,71.1,29.93,SSW,213,5.0,10.0,91,0.00,,FEW,0.00,0.00,VWS V14.01,2013-02-08 10:01:00,
2013-02-08 05:02:00,73.9,71.4,29.93,SW,219,8.0,10.0,92,0.00,,FEW,0.00,0.00,VWS V14.01,2013-02-08 10:02:00,
2013-02-08 05:05:00,73.9,71.1,29.93,SW,214,7.0,10.0,91,0.00,,FEW,0.00,0.00,VWS V14.01,2013-02-08 10:05:00,
2013-02-08 05:06:00,73.9,71.1,29.93,South,190,5.0,10.0,91,0.00,,FEW,0.00,0.00,VWS V14.01,2013-02-08 10:06:00,
2013-02-08 05:08:00,73.9,71.1,29.93,South,185,10.0,10.0,91,0.00,,FEW,0.00,0.00,VWS V14.01,2013-02-08 10:08:00,
2013-02-08 05:10:00,73.9,71.4,29.93,SW,221,4.0,10.0,92,0.00,,FEW,0.00,0.00,VWS V14.01,2013-02-08 10:10:00,
2013-02-08 05:11:00,74.0,71.5,29.93,SSW,211,4.0,10.0,92,0.00,,FEW,0.00,0.00,VWS V14.01,2013-02-08 10:11:00,
2013-02-08 05:13:00,74.0,71.5,29.93,SSW,211,4.0,8.0,92,0.00,,FEW,0.00,0.00,VWS V14.01,2013-02-08 10:13:00,
2013-02-08 05:15:00,74.0,71.5,29.93,SW,224,3.0,10.0,92,0.00,,FEW,0.00,0.00,VWS V14.01,2013-02-08 10:15:00,
2013-02-08 05:16:00,74.0,71.5,29.93,SSW,205,5.0,10.0,92,0.00,,FEW,0.00,0.00,VWS V14.01,2013-02-08 10:16:00,
2013-02-08 05:18:00,74.0,71.5,29.93,SSW,213,6.0,11.0,92,0.00,,FEW,0.00,0.00,VWS V14.01,2013-02-08 10:18:00,
2013-02-08 05:20:00,74.0,71.5,29.93,SW,220,5.0,11.0,92,0.00,,FEW,0.00,0.00,VWS V14.01,2013-02-08 10:20:00,
2013-02-08 05:21:00,74.0,71.5,29.93,SSW,201,7.0,9.0,92,0.00,,FEW,0.00,0.00,VWS V14.01,2013-02-08 10:21:00,
2013-02-08 05:23:00,74.0,71.5,29.93,SW,221,4.0,9.0,92,0.00,,FEW,0.00,0.00,VWS V14.01,2013-02-08 10:23:00,
2013-02-08 05:25:00,74.0,71.5,29.93,SSW,209,8.0,9.0,92,0.00,,FEW,0.00,0.00,VWS V14.01,2013-02-08 10:25:00,
2013-02-08 05:26:00,74.1,71.6,29.93,SSW,205,7.0,9.0,92,0.00,,FEW,0.00,0.00,VWS V14.01,2013-02-08 10:26:00,
2013-02-08 05:27:00,74.0,71.5,29.93,SSW,207,7.0,9.0,92,0.00,,FEW,0.00,0.00,VWS V14.01,2013-02-08 10:27:00,
2013-02-08 05:28:00,74.1,71.6,29.93,SSW,206,6.0,9.0,92,0.00,,FEW,0.00,0.00,VWS V14.01,2013-02-08 10:28:00,
2013-02-08 05:30:00,74.1,71.6,29.93,SSW,200,6.0,9.0,92,0.00,,FEW,0.00,0.00,VWS V14.01,2013-02-08 10:30:00,
2013-02-08 05:31:00,74.0,71.5,29.93,WSW,240,6.0,7.0,92,0.00,,FEW,0.00,0.00,VWS V14.01,2013-02-08 10:31:00,
2013-02-08 05:32:00,74.1,71.6,29.93,SW,215,8.0,8.0,92,0.00,,FEW,0.00,0.00,VWS V14.01,2013-02-08 10:32:00,
2013-02-08 05:33:00,74.1,71.6,29.93,SW,229,7.0,8.0,92,0.00,,FEW,0.00,0.00,VWS V14.01,2013-02-08 10:33:00,
2013-02-08 05:35:00,74.1,71.6,29.93,SSW,192,7.0,8.0,92,0.00,,FEW,0.00,0.00,VWS V14.01,2013-02-08 10:35:00,
2013-02-08 05:37:00,74.1,71.6,29.93,SW,221,3.0,9.0,92,0.00,,FEW,0.00,0.00,VWS V14.01,2013-02-08 10:37:00,
2013-02-08 05:38:00,74.1,71.6,29.93,SSW,205,6.0,9.0,92,0.00,,FEW,0.00,0.00,VWS V14.01,2013-02-08 10:38:00,
2013-02-08 05:40:00,74.1,71.6,29.93,SW,229,5.0,11.0,92,0.00,,FEW,0.00,0.00,VWS V14.01,2013-02-08 10:40:00,
2013-02-08 05:42:00,74.1,71.6,29.93,South,190,5.0,7.0,92,0.00,,FEW,0.00,0.00,VWS V14.01,2013-02-08 10:42:00,
2013-02-08 05:43:00,74.1,71.6,29.93,SW,231,6.0,7.0,92,0.00,,FEW,0.00,0.00,VWS V14.01,2013-02-08 10:43:00,
2013-02-08 05:45:00,74.1,71.6,29.93,SW,229,5.0,9.0,92,0.00,,FEW,0.00,0.00,VWS V14.01,2013-02-08 10:45:00,
2013-02-08 05:47:00,74.1,71.6,29.94,WSW,240,5.0,9.0,92,0.00,,FEW,0.00,0.00,VWS V14.01,2013-02-08 10:47:00,
2013-02-08 05:48:00,74.1,71.6,29.94,SW,216,5.0,9.0,92,0.00,,FEW,0.00,0.00,VWS V14.01,2013-02-08 10:48:00,
2013-02-08 05:50:00,74.1,71.6,29.94,SSW,200,4.0,9.0,92,0.00,,FEW,0.00,0.00,VWS V14.01,2013-02-08 10:50:00,
2013-02-08 05:52:00,74.1,71.6,29.94,SW,225,6.0,7.0,92,0.00,,FEW,0.00,0.00,VWS V14.01,2013-02-08 10:52:00,
2013-02-08 05:53:00,74.1,71.6,29.94,SW,226,4.0,7.0,92,0.00,,FEW,0.00,0.00,VWS V14.01,2013-02-08 10:53:00,
2013-02-08 05:55:00,74.1,71.6,29.94,SSW,205,6.0,10.0,92,0.00,,FEW,0.00,0.00,VWS V14.01,2013-02-08 10:55:00,
2013-02-08 05:57:00,74.1,71.6,29.94,SW,217,6.0,10.0,92,0.00,,FEW,0.00,0.00,VWS V14.01,2013-02-08 10:57:00,
2013-02-08 05:58:00,74.1,71.6,29.94,SW,225,4.0,10.0,92,0.00,,FEW,0.00,0.00,VWS V14.01,2013-02-08 10:58:00,
2013-02-08 05:59:00,74.2,71.7,29.94,SW,228,8.0,10.0,92,0.00,,FEW,0.00,0.00,VWS V14.01,2013-02-08 10:59:00,
2013-02-08 06:00:00,74.2,71.7,29.94,SSW,211,6.0,10.0,92,0.00,,FEW,0.00,0.00,VWS V14.01,2013-02-08 11:00:00,
2013-02-08 06:02:00,74.2,71.7,29.94,SW,217,7.0,8.0,92,0.00,,FEW,0.00,0.00,VWS V14.01,2013-02-08 11:02:00,
2013-02-08 06:03:00,74.2,71.7,29.94,SW,223,5.0,8.0,92,0.00,,FEW,0.00,0.00,VWS V14.01,2013-02-08 11:03:00,
2013-02-08 06:04:00,74.2,71.7,29.94,SSW,200,4.0,8.0,92,0.00,,FEW,0.00,0.00,VWS V14.01,2013-02-08 11:04:00,
2013-02-08 06:05:00,74.2,71.7,29.94,South,191,4.0,8.0,92,0.00,,FEW,0.00,0.00,VWS V14.01,2013-02-08 11:05:00,
2013-02-08 06:07:00,74.2,71.7,29.94,SW,214,4.0,8.0,92,0.00,,FEW,0.00,0.00,VWS V14.01,2013-02-08 11:07:00,
2013-02-08 06:08:00,74.2,71.7,29.94,SSW,207,5.0,8.0,92,0.00,,FEW,0.00,0.00,VWS V14.01,2013-02-08 11:08:00,
2013-02-08 06:09:00,74.2,71.7,29.94,SW,226,3.0,8.0,92,0.00,,FEW,0.00,0.00,VWS V14.01,2013-02-08 11:09:00,
2013-02-08 06:10:00,74.2,71.7,29.94,SW,229,5.0,8.0,92,0.00,,FEW,0.00,0.00,VWS V14.01,2013-02-08 11:10:00,
2013-02-08 06:12:00,74.2,71.7,29.94,SSW,203,6.0,6.0,92,0.00,,FEW,0.00,0.00,VWS V14.01,2013-02-08 11:12:00,
2013-02-08 06:13:00,74.2,71.7,29.94,SW,218,5.0,6.0,92,0.00,,FEW,0.00,0.00,VWS V14.01,2013-02-08 11:13:00,
2013-02-08 06:14:00,74.2,71.7,29.94,SW,233,5.0,6.0,92,0.00,,FEW,0.00,0.00,VWS V14.01,2013-02-08 11:14:00,
2013-02-08 06:16:00,74.2,71.7,29.94,SSW,200,6.0,8.0,92,0.00,,FEW,0.00,0.00,VWS V14.01,2013-02-08 11:16:00,
2013-02-08 06:18:00,74.2,71.7,29.94,SSW,213,7.0,8.0,92,0.00,,FEW,0.00,0.00,VWS V14.01,2013-02-08 11:18:00,
2013-02-08 06:19:00,74.2,72.1,29.94,SW,228,5.0,8.0,93,0.00,,FEW,0.00,0.00,VWS V14.01,2013-02-08 11:19:00,
2013-02-08 06:21:00,74.2,72.1,29.94,SW,215,6.0,8.0,93,0.00,,FEW,0.00,0.00,VWS V14.01,2013-02-08 11:21:00,
2013-02-08 06:23:00,74.2,72.1,29.94,SW,234,4.0,6.0,93,0.00,,FEW,0.00,0.00,VWS V14.01,2013-02-08 11:23:00,
2013-02-08 06:24:00,74.1,71.9,29.94,SW,217,2.0,6.0,93,0.00,,FEW,0.00,0.00,VWS V14.01,2013-02-08 11:24:00,
2013-02-08 06:26:00,74.2,71.7,29.94,SSW,207,4.0,6.0,92,0.00,,FEW,0.00,0.00,VWS V14.01,2013-02-08 11:26:00,
2013-02-08 06:28:00,74.1,71.6,29.94,WSW,244,5.0,6.0,92,0.00,,FEW,0.00,0.00,VWS V14.01,2013-02-08 11:28:00,
2013-02-08 06:29:00,74.1,71.6,29.94,SW,235,2.0,6.0,92,0.00,,FEW,0.00,0.00,VWS V14.01,2013-02-08 11:29:00,
2013-02-08 06:31:00,74.1,71.6,29.96,SW,225,2.0,6.0,92,0.00,,FEW,0.00,0.00,VWS V14.01,2013-02-08 11:31:00,
2013-02-08 06:33:00,74.1,71.6,29.96,SW,229,2.0,5.0,92,0.00,,FEW,0.00,0.00,VWS V14.01,2013-02-08 11:33:00,
2013-02-08 06:34:00,74.1,71.6,29.96,SW,224,3.0,5.0,92,0.00,,FEW,0.00,0.00,VWS V14.01,2013-02-08 11:34:00,
2013-02-08 06:36:00,74.1,71.9,29.96,SW,229,2.0,5.0,93,0.00,,FEW,0.00,0.00,VWS V14.01,2013-02-08 11:36:00,
2013-02-08 06:38:00,74.1,71.9,29.96,SW,230,3.0,5.0,93,0.00,,FEW,0.00,0.00,VWS V14.01,2013-02-08 11:38:00,
2013-02-08 06:39:00,74.1,71.9,29.96,West,259,4.0,5.0,93,0.00,,FEW,0.00,0.00,VWS V14.01,2013-02-08 11:39:00,
2013-02-08 06:41:00,74.1,71.9,29.96,SW,219,2.0,5.0,93,0.00,,FEW,0.00,0.00,VWS V14.01,2013-02-08 11:41:00,
2013-02-08 06:43:00,74.1,71.9,29.96,SW,229,4.0,5.0,93,0.00,,FEW,0.00,0.00,VWS V14.01,2013-02-08 11:43:00,
2013-02-08 06:44:00,74.1,71.9,29.96,WSW,239,4.0,5.0,93,0.00,,FEW,0.00,0.00,VWS V14.01,2013-02-08 11:44:00,
2013-02-08 06:46:00,74.1,71.9,29.97,SSW,198,3.0,5.0,93,0.00,,FEW,0.00,0.00,VWS V14.01,2013-02-08 11:46:00,
2013-02-08 06:48:00,74.1,71.9,29.97,SW,223,3.0,5.0,93,0.00,,FEW,0.00,0.00,VWS V14.01,2013-02-08 11:48:00,
2013-02-08 06:49:00,74.0,71.8,29.97,WSW,238,4.0,6.0,93,0.00,,FEW,0.00,0.00,VWS V14.01,2013-02-08 11:49:00,
2013-02-08 06:51:00,74.0,71.8,29.97,SW,214,3.0,4.0,93,0.00,,FEW,0.00,0.00,VWS V14.01,2013-02-08 11:51:00,
2013-02-08 06:53:00,74.0,71.8,29.97,SSW,208,2.0,6.0,93,0.00,,FEW,0.00,0.00,VWS V14.01,2013-02-08 11:53:00,
2013-02-08 06:54:00,74.0,71.8,29.97,SW,235,4.0,6.0,93,0.00,,FEW,0.00,0.00,VWS V14.01,2013-02-08 11:54:00,
2013-02-08 06:56:00,74.0,71.8,29.97,WSW,237,3.0,6.0,93,0.00,,FEW,0.00,0.00,VWS V14.01,2013-02-08 11:56:00,
2013-02-08 06:58:00,74.0,71.8,29.97,WSW,244,4.0,6.0,93,0.00,,FEW,0.00,0.00,VWS V14.01,2013-02-08 11:58:00,
2013-02-08 06:59:00,74.0,71.8,29.97,WSW,240,2.0,6.0,93,0.00,,FEW,0.00,0.00,VWS V14.01,2013-02-08 11:59:00,
2013-02-08 07:00:00,74.0,71.8,29.97,WSW,240,4.0,6.0,93,0.00,,FEW,0.00,0.00,VWS V14.01,2013-02-08 12:00:00,
2013-02-08 07:01:00,74.0,71.8,29.97,WSW,238,3.0,5.0,93,0.00,,FEW,0.00,0.00,VWS V14.01,2013-02-08 12:01:00,
2013-02-08 07:03:00,74.0,71.8,29.97,WSW,238,2.0,5.0,93,0.00,,FEW,0.00,5.00,VWS V14.01,2013-02-08 12:03:00,
2013-02-08 07:04:00,74.0,71.8,29.97,SW,229,3.0,5.0,93,0.00,,FEW,0.00,5.00,VWS V14.01,2013-02-08 12:04:00,
2013-02-08 07:05:00,74.0,71.8,29.97,SW,214,2.0,5.0,93,0.00,,FEW,0.00,5.00,VWS V14.01,2013-02-08 12:05:00,
2013-02-08 07:06:00,74.0,71.8,29.97,SW,225,3.0,5.0,93,0.00,,FEW,0.00,7.00,VWS V14.01,2013-02-08 12:06:00,
2013-02-08 07:08:00,74.0,71.8,29.97,WSW,246,1.0,5.0,93,0.00,,FEW,0.00,7.00,VWS V14.01,2013-02-08 12:08:00,
2013-02-08 07:09:00,74.0,71.8,29.97,WSW,242,2.0,5.0,93,0.00,,FEW,0.00,9.00,VWS V14.01,2013-02-08 12:09:00,
2013-02-08 07:11:00,74.0,71.8,29.97,West,261,2.0,5.0,93,0.00,,FEW,0.00,9.00,VWS V14.01,2013-02-08 12:11:00,
2013-02-08 07:12:00,74.0,71.8,29.97,SW,217,1.0,4.0,93,0.00,,FEW,0.00,11.00,VWS V14.01,2013-02-08 12:12:00,
2013-02-08 07:14:00,74.0,71.8,29.97,SW,235,3.0,4.0,93,0.00,,FEW,0.00,12.00,VWS V14.01,2013-02-08 12:14:00,
2013-02-08 07:16:00,74.0,71.8,29.98,WSW,246,3.0,4.0,93,0.00,,FEW,0.00,12.00,VWS V14.01,2013-02-08 12:16:00,
2013-02-08 07:17:00,73.9,71.8,29.98,WSW,246,4.0,4.0,93,0.00,,FEW,0.00,14.00,VWS V14.01,2013-02-08 12:17:00,
2013-02-08 07:19:00,73.9,71.8,29.98,SW,227,4.0,5.0,93,0.00,,FEW,0.00,16.00,VWS V14.01,2013-02-08 12:19:00,
2013-02-08 07:21:00,73.9,71.8,29.98,WSW,246,5.0,5.0,93,0.00,,FEW,0.00,19.00,VWS V14.01,2013-02-08 12:21:00,
2013-02-08 07:22:00,74.0,71.8,29.98,SW,233,6.0,6.0,93,0.00,,FEW,0.00,21.00,VWS V14.01,2013-02-08 12:22:00,
2013-02-08 07:24:00,74.0,71.8,29.98,SW,222,0.0,6.0,93,0.00,,FEW,0.00,19.00,VWS V14.01,2013-02-08 12:24:00,
2013-02-08 07:26:00,74.0,71.8,29.98,SW,223,2.0,6.0,93,0.00,,FEW,0.00,32.00,VWS V14.01,2013-02-08 12:26:00,
2013-02-08 07:27:00,73.9,71.8,29.98,SW,216,2.0,6.0,93,0.00,,FEW,0.00,33.00,VWS V14.01,2013-02-08 12:27:00,
2013-02-08 07:29:00,74.0,71.8,29.98,WSW,240,3.0,6.0,93,0.00,,FEW,0.00,42.00,VWS V14.01,2013-02-08 12:29:00,
2013-02-08 07:30:00,74.0,71.8,29.98,SW,236,1.0,6.0,93,0.00,,FEW,0.00,46.00,VWS V14.01,2013-02-08 12:30:00,
2013-02-08 07:31:00,74.0,71.8,29.98,WSW,239,3.0,6.0,93,0.00,,FEW,0.00,49.00,VWS V14.01,2013-02-08 12:31:00,
2013-02-08 07:32:00,74.0,71.8,29.98,WSW,251,3.0,4.0,93,0.00,,FEW,0.00,46.00,VWS V14.01,2013-02-08 12:32:00,
2013-02-08 07:34:00,74.0,71.8,29.98,WSW,243,3.0,5.0,93,0.00,,FEW,0.00,47.00,VWS V14.01,2013-02-08 12:34:00,
2013-02-08 07:35:00,74.0,71.8,29.98,WSW,241,4.0,5.0,93,0.00,,FEW,0.00,44.00,VWS V14.01,2013-02-08 12:35:00,
2013-02-08 07:36:00,74.0,71.8,29.98,SW,223,2.0,5.0,93,0.00,,FEW,0.00,37.00,VWS V14.01,2013-02-08 12:36:00,
2013-02-08 07:37:00,74.0,71.8,29.98,SW,232,3.0,5.0,93,0.00,,FEW,0.00,44.00,VWS V14.01,2013-02-08 12:37:00,
2013-02-08 07:39:00,74.0,71.8,29.98,SW,227,3.0,5.0,93,0.00,,FEW,0.00,39.00,VWS V14.01,2013-02-08 12:39:00,
2013-02-08 07:40:00,74.0,71.8,29.98,SW,225,1.0,5.0,93,0.00,,FEW,0.00,44.00,VWS V14.01,2013-02-08 12:40:00,
2013-02-08 07:41:00,74.1,71.9,29.98,SW,232,3.0,5.0,93,0.00,,FEW,0.00,54.00,VWS V14.01,2013-02-08 12:41:00,
2013-02-08 07:42:00,74.1,71.9,29.98,SW,217,4.0,4.0,93,0.00,,FEW,0.00,56.00,VWS V14.01,2013-02-08 12:42:00,
2013-02-08 07:44:00,74.1,71.9,29.98,SSW,208,2.0,4.0,93,0.00,,FEW,0.00,83.00,VWS V14.01,2013-02-08 12:44:00,
2013-02-08 07:45:00,74.1,71.9,29.98,SW,228,4.0,4.0,93,0.00,,FEW,0.00,83.00,VWS V14.01,2013-02-08 12:45:00,
2013-02-08 07:46:00,74.1,71.9,29.99,WSW,238,3.0,5.0,93,0.00,,FEW,0.00,84.00,VWS V14.01,2013-02-08 12:46:00,
2013-02-08 07:47:00,74.2,72.1,29.99,SW,216,3.0,6.0,93,0.00,,FEW,0.00,98.00,VWS V14.01,2013-02-08 12:47:00,
2013-02-08 07:49:00,74.2,72.4,29.99,SW,226,4.0,6.0,94,0.00,,FEW,0.00,104.00,VWS V14.01,2013-02-08 12:49:00,
2013-02-08 07:50:00,74.2,72.4,29.99,SSW,200,3.0,6.0,94,0.00,,FEW,0.00,104.00,VWS V14.01,2013-02-08 12:50:00,
2013-02-08 07:51:00,74.2,72.4,29.99,SW,217,4.0,4.0,94,0.00,,FEW,0.00,105.00,VWS V14.01,2013-02-08 12:51:00,
2013-02-08 07:52:00,74.2,72.4,29.99,SW,216,2.0,4.0,94,0.00,,FEW,0.00,104.00,VWS V14.01,2013-02-08 12:52:00,
2013-02-08 07:55:00,74.3,72.5,29.99,SW,225,2.0,4.0,94,0.00,,FEW,0.00,120.00,VWS V14.01,2013-02-08 12:55:00,
2013-02-08 07:56:00,74.4,72.6,29.99,SW,229,2.0,4.0,94,0.00,,FEW,0.00,125.00,VWS V14.01,2013-02-08 12:56:00,
2013-02-08 07:57:00,74.4,72.6,29.99,SW,225,3.0,4.0,94,0.00,,FEW,0.00,128.00,VWS V14.01,2013-02-08 12:57:00,
2013-02-08 08:00:00,74.4,72.6,29.99,SW,218,2.0,6.0,94,0.00,,FEW,0.00,130.00,VWS V14.01,2013-02-08 13:00:00,
2013-02-08 08:02:00,74.5,72.7,29.99,SW,232,3.0,3.0,94,0.00,,FEW,0.00,142.00,VWS V14.01,2013-02-08 13:02:00,
2013-02-08 08:03:00,74.5,72.7,29.99,SW,233,3.0,4.0,94,0.00,,FEW,0.00,146.00,VWS V14.01,2013-02-08 13:03:00,
2013-02-08 08:05:00,74.6,72.4,29.99,SSW,210,3.0,5.0,93,0.00,,FEW,0.00,153.00,VWS V14.01,2013-02-08 13:05:00,
2013-02-08 08:07:00,74.6,72.4,29.99,SW,229,3.0,5.0,93,0.00,,FEW,0.00,160.00,VWS V14.01,2013-02-08 13:07:00,
2013-02-08 08:08:00,74.6,72.4,29.99,SSW,196,4.0,5.0,93,0.00,,FEW,0.00,163.00,VWS V14.01,2013-02-08 13:08:00,
2013-02-08 08:10:00,74.7,72.6,29.99,SSW,205,2.0,5.0,93,0.00,,FEW,0.00,171.00,VWS V14.01,2013-02-08 13:10:00,
2013-02-08 08:12:00,74.8,72.6,29.99,SW,216,3.0,5.0,93,0.00,,FEW,0.00,176.00,VWS V14.01,2013-02-08 13:12:00,
2013-02-08 08:13:00,74.7,72.6,29.99,SW,222,4.0,6.0,93,0.00,,FEW,0.00,179.00,VWS V14.01,2013-02-08 13:13:00,
2013-02-08 08:15:00,74.8,72.6,29.99,SSW,195,4.0,6.0,93,0.00,,FEW,0.00,190.00,VWS V14.01,2013-02-08 13:15:00,
2013-02-08 08:17:00,74.8,72.6,29.99,SW,224,5.0,6.0,93,0.00,,FEW,0.00,197.00,VWS V14.01,2013-02-08 13:17:00,
2013-02-08 08:18:00,74.8,72.6,29.99,SSW,209,5.0,6.0,93,0.00,,FEW,0.00,200.00,VWS V14.01,2013-02-08 13:18:00,
2013-02-08 08:20:00,74.9,72.7,29.99,SW,232,3.0,6.0,93,0.00,,FEW,0.00,207.00,VWS V14.01,2013-02-08 13:20:00,
2013-02-08 08:22:00,75.0,72.8,29.99,SW,215,5.0,5.0,93,0.00,,FEW,0.00,213.00,VWS V14.01,2013-02-08 13:22:00,
2013-02-08 08:23:00,75.0,72.8,29.99,SW,236,3.0,5.0,93,0.00,,FEW,0.00,216.00,VWS V14.01,2013-02-08 13:23:00,
2013-02-08 08:25:00,75.1,72.9,29.99,SSW,211,2.0,6.0,93,0.00,,FEW,0.00,223.00,VWS V14.01,2013-02-08 13:25:00,
2013-02-08 08:27:00,75.2,73.0,29.99,SW,232,4.0,6.0,93,0.00,,FEW,0.00,230.00,VWS V14.01,2013-02-08 13:27:00,
2013-02-08 08:29:00,75.2,73.0,29.99,SW,227,5.0,6.0,93,0.00,,FEW,0.00,237.00,VWS V14.01,2013-02-08 13:29:00,
2013-02-08 08:30:00,75.3,73.1,30.00,SW,220,5.0,6.0,93,0.00,,FEW,0.00,241.00,VWS V14.01,2013-02-08 13:30:00,
2013-02-08 08:33:00,75.5,73.0,30.00,SW,234,3.0,5.0,92,0.00,,FEW,0.00,250.00,VWS V14.01,2013-02-08 13:33:00,
2013-02-08 08:34:00,75.5,73.0,30.00,SW,215,4.0,5.0,92,0.00,,FEW,0.00,251.00,VWS V14.01,2013-02-08 13:34:00,
2013-02-08 08:35:00,75.6,73.1,30.00,WSW,242,5.0,5.0,92,0.00,,FEW,0.00,253.00,VWS V14.01,2013-02-08 13:35:00,
2013-02-08 08:38:00,75.7,73.2,30.00,SW,225,4.0,5.0,92,0.00,,FEW,0.00,265.00,VWS V14.01,2013-02-08 13:38:00,
2013-02-08 08:39:00,75.7,73.2,30.00,SSW,212,3.0,6.0,92,0.00,,FEW,0.00,269.00,VWS V14.01,2013-02-08 13:39:00,
2013-02-08 08:40:00,75.8,73.3,30.00,SSW,211,4.0,6.0,92,0.00,,FEW,0.00,276.00,VWS V14.01,2013-02-08 13:40:00,
2013-02-08 08:41:00,75.9,73.4,30.00,SW,223,4.0,6.0,92,0.00,,FEW,0.00,279.00,VWS V14.01,2013-02-08 13:41:00,
2013-02-08 08:43:00,75.9,73.1,30.00,WSW,240,4.0,6.0,91,0.00,,FEW,0.00,287.00,VWS V14.01,2013-02-08 13:43:00,
2013-02-08 08:44:00,76.0,73.2,30.00,SW,221,2.0,6.0,91,0.00,,FEW,0.00,290.00,VWS V14.01,2013-02-08 13:44:00,
2013-02-08 08:45:00,76.1,73.3,30.01,WSW,240,4.0,6.0,91,0.00,,FEW,0.00,294.00,VWS V14.01,2013-02-08 13:45:00,
2013-02-08 08:46:00,76.1,73.3,30.01,SW,229,3.0,7.0,91,0.00,,FEW,0.00,297.00,VWS V14.01,2013-02-08 13:46:00,
2013-02-08 08:48:00,76.2,73.4,30.01,SSW,200,3.0,7.0,91,0.00,,FEW,0.00,302.00,VWS V14.01,2013-02-08 13:48:00,
2013-02-08 08:49:00,76.3,73.2,30.01,WSW,257,3.0,7.0,90,0.00,,FEW,0.00,306.00,VWS V14.01,2013-02-08 13:49:00,
2013-02-08 08:50:00,76.4,73.2,30.01,WSW,245,3.0,7.0,90,0.00,,FEW,0.00,309.00,VWS V14.01,2013-02-08 13:50:00,
2013-02-08 08:51:00,76.4,73.2,30.01,WSW,240,4.0,4.0,90,0.00,,FEW,0.00,311.00,VWS V14.01,2013-02-08 13:51:00,
2013-02-08 08:53:00,76.4,73.2,30.01,WSW,242,3.0,6.0,90,0.00,,FEW,0.00,318.00,VWS V14.01,2013-02-08 13:53:00,
2013-02-08 08:54:00,76.5,73.3,30.01,SSW,210,4.0,6.0,90,0.00,,FEW,0.00,322.00,VWS V14.01,2013-02-08 13:54:00,
2013-02-08 08:56:00,76.6,73.4,30.01,SW,232,4.0,6.0,90,0.00,,FEW,0.00,327.00,VWS V14.01,2013-02-08 13:56:00,
2013-02-08 08:58:00,76.7,73.2,30.01,SW,235,5.0,7.0,89,0.00,,FEW,0.00,336.00,VWS V14.01,2013-02-08 13:58:00,
2013-02-08 08:59:00,76.8,73.3,30.01,SSW,202,4.0,7.0,89,0.00,,FEW,0.00,339.00,VWS V14.01,2013-02-08 13:59:00,
2013-02-08 09:01:00,76.8,73.3,30.02,SW,231,4.0,7.0,89,0.00,,FEW,0.00,346.00,VWS V14.01,2013-02-08 14:01:00,
2013-02-08 09:03:00,76.9,73.1,30.02,SW,232,6.0,8.0,88,0.00,,FEW,0.00,353.00,VWS V14.01,2013-02-08 14:03:00,
2013-02-08 09:04:00,76.9,73.1,30.02,SW,216,3.0,8.0,88,0.00,,FEW,0.00,360.00,VWS V14.01,2013-02-08 14:04:00,
2013-02-08 09:06:00,77.0,73.2,30.02,WSW,250,7.0,8.0,88,0.00,,FEW,0.00,366.00,VWS V14.01,2013-02-08 14:06:00,
2013-02-08 09:08:00,77.1,73.3,30.02,SW,228,3.0,8.0,88,0.00,,FEW,0.00,371.00,VWS V14.01,2013-02-08 14:08:00,
2013-02-08 09:09:00,77.1,73.3,30.02,SW,219,7.0,8.0,88,0.00,,FEW,0.00,374.00,VWS V14.01,2013-02-08 14:09:00,
2013-02-08 09:11:00,77.2,73.0,30.02,SSW,213,3.0,8.0,87,0.00,,FEW,0.00,381.00,VWS V14.01,2013-02-08 14:11:00,
2013-02-08 09:13:00,77.2,73.0,30.02,SSW,204,7.0,7.0,87,0.00,,FEW,0.00,388.00,VWS V14.01,2013-02-08 14:13:00,
2013-02-08 09:14:00,77.2,73.0,30.02,SSW,196,3.0,8.0,87,0.00,,FEW,0.00,394.00,VWS V14.01,2013-02-08 14:14:00,
2013-02-08 09:16:00,77.2,73.0,30.02,SSW,209,5.0,8.0,87,0.00,,FEW,0.00,399.00,VWS V14.01,2013-02-08 14:16:00,
2013-02-08 09:18:00,77.2,73.0,30.02,SSW,211,4.0,8.0,87,0.00,,FEW,0.00,406.00,VWS V14.01,2013-02-08 14:18:00,
2013-02-08 09:19:00,77.2,73.0,30.02,SSW,210,5.0,8.0,87,0.00,,FEW,0.00,413.00,VWS V14.01,2013-02-08 14:19:00,
2013-02-08 09:21:00,77.2,73.0,30.02,SSW,213,3.0,8.0,87,0.00,,FEW,0.00,418.00,VWS V14.01,2013-02-08 14:21:00,
2013-02-08 09:23:00,77.3,73.5,30.02,WSW,240,5.0,7.0,88,0.00,,FEW,0.00,425.00,VWS V14.01,2013-02-08 14:23:00,
2013-02-08 09:24:00,77.3,73.1,30.02,SW,219,6.0,7.0,87,0.00,,FEW,0.00,427.00,VWS V14.01,2013-02-08 14:24:00,
2013-02-08 09:26:00,77.3,73.5,30.02,SW,219,3.0,7.0,88,0.00,,FEW,0.00,434.00,VWS V14.01,2013-02-08 14:26:00,
2013-02-08 09:27:00,77.3,73.5,30.02,SW,230,6.0,7.0,88,0.00,,FEW,0.00,438.00,VWS V14.01,2013-02-08 14:27:00,
2013-02-08 09:28:00,77.4,73.2,30.02,WSW,245,5.0,7.0,87,0.00,,FEW,0.00,443.00,VWS V14.01,2013-02-08 14:28:00,
2013-02-08 09:30:00,77.5,73.7,30.02,WSW,256,3.0,7.0,88,0.00,,FEW,0.00,446.00,VWS V14.01,2013-02-08 14:30:00,
2013-02-08 09:31:00,77.5,73.3,30.03,SW,225,6.0,6.0,87,0.00,,FEW,0.00,446.00,VWS V14.01,2013-02-08 14:31:00,
2013-02-08 09:32:00,77.5,73.3,30.03,SSW,208,6.0,7.0,87,0.00,,FEW,0.00,452.00,VWS V14.01,2013-02-08 14:32:00,
2013-02-08 09:33:00,77.5,73.3,30.03,SSW,213,4.0,7.0,87,0.00,,FEW,0.00,457.00,VWS V14.01,2013-02-08 14:33:00,
2013-02-08 09:35:00,77.5,73.3,30.03,West,261,3.0,7.0,87,0.00,,FEW,0.00,466.00,VWS V14.01,2013-02-08 14:35:00,
2013-02-08 09:37:00,77.6,73.4,30.03,SW,218,3.0,7.0,87,0.00,,FEW,0.00,471.00,VWS V14.01,2013-02-08 14:37:00,
2013-02-08 09:38:00,77.6,73.4,30.03,SW,216,4.0,7.0,87,0.00,,FEW,0.00,476.00,VWS V14.01,2013-02-08 14:38:00,
2013-02-08 09:40:00,77.6,73.4,30.03,WSW,242,6.0,8.0,87,0.00,,FEW,0.00,483.00,VWS V14.01,2013-02-08 14:40:00,
2013-02-08 09:42:00,77.7,73.5,30.03,SW,224,4.0,7.0,87,0.00,,FEW,0.00,489.00,VWS V14.01,2013-02-08 14:42:00,
2013-02-08 09:44:00,77.8,73.6,30.03,WSW,245,7.0,7.0,87,0.00,,FEW,0.00,496.00,VWS V14.01,2013-02-08 14:44:00,
2013-02-08 09:45:00,77.8,73.6,30.03,WSW,238,4.0,7.0,87,0.00,,FEW,0.00,513.00,VWS V14.01,2013-02-08 14:45:00,
2013-02-08 09:47:00,77.8,73.3,30.03,SW,235,5.0,7.0,86,0.00,,FEW,0.00,520.00,VWS V14.01,2013-02-08 14:47:00,
2013-02-08 09:49:00,77.9,73.4,30.03,SW,219,5.0,7.0,86,0.00,,FEW,0.00,531.00,VWS V14.01,2013-02-08 14:49:00,
2013-02-08 09:50:00,78.0,73.5,30.03,SW,215,6.0,7.0,86,0.00,,FEW,0.00,559.00,VWS V14.01,2013-02-08 14:50:00,
2013-02-08 09:52:00,78.1,73.6,30.03,WSW,242,4.0,4.0,86,0.00,,FEW,0.00,541.00,VWS V14.01,2013-02-08 14:52:00,
2013-02-08 09:53:00,78.1,73.6,30.03,WSW,243,5.0,6.0,86,0.00,,FEW,0.00,541.00,VWS V14.01,2013-02-08 14:53:00,
2013-02-08 09:54:00,78.2,73.7,30.03,SW,222,3.0,8.0,86,0.00,,FEW,0.00,555.00,VWS V14.01,2013-02-08 14:54:00,
2013-02-08 09:56:00,78.3,73.4,30.03,SW,231,3.0,8.0,85,0.00,,FEW,0.00,563.00,VWS V14.01,2013-02-08 14:56:00,
2013-02-08 09:57:00,78.3,73.4,30.03,WSW,240,3.0,8.0,85,0.00,,FEW,0.00,563.00,VWS V14.01,2013-02-08 14:57:00,
2013-02-08 09:59:00,78.4,73.5,30.03,SSW,211,4.0,8.0,85,0.00,,FEW,0.00,571.00,VWS V14.01,2013-02-08 14:59:00,
2013-02-08 10:01:00,78.4,73.5,30.03,SSW,210,5.0,8.0,85,0.00,,FEW,0.00,578.00,VWS V14.01,2013-02-08 15:01:00,
2013-02-08 10:02:00,78.5,73.6,30.03,WSW,244,6.0,6.0,85,0.00,,FEW,0.00,564.00,VWS V14.01,2013-02-08 15:02:00,
2013-02-08 10:03:00,78.5,73.6,30.03,SW,219,4.0,6.0,85,0.00,,FEW,0.00,564.00,VWS V14.01,2013-02-08 15:03:00,
2013-02-08 10:04:00,78.5,73.6,30.03,SW,220,5.0,6.0,85,0.00,,FEW,0.00,564.00,VWS V14.01,2013-02-08 15:04:00,
2013-02-08 10:06:00,78.5,73.6,30.03,WSW,245,6.0,9.0,85,0.00,,FEW,0.00,605.00,VWS V14.01,2013-02-08 15:06:00,
2013-02-08 10:07:00,78.5,73.3,30.03,SW,235,3.0,9.0,84,0.00,,FEW,0.00,605.00,VWS V14.01,2013-02-08 15:07:00,
2013-02-08 10:08:00,78.5,73.3,30.03,SW,227,2.0,9.0,84,0.00,,FEW,0.00,605.00,VWS V14.01,2013-02-08 15:08:00,
2013-02-08 10:09:00,78.6,73.7,30.03,SW,229,2.0,9.0,85,0.00,,FEW,0.00,612.00,VWS V14.01,2013-02-08 15:09:00,
2013-02-08 10:11:00,78.6,73.4,30.03,SSW,200,4.0,9.0,84,0.00,,FEW,0.00,533.00,VWS V14.01,2013-02-08 15:11:00,
2013-02-08 10:12:00,78.6,73.0,30.03,SSW,196,3.0,7.0,83,0.00,,FEW,0.00,533.00,VWS V14.01,2013-02-08 15:12:00,
2013-02-08 10:13:00,78.6,73.0,30.03,WSW,256,5.0,7.0,83,0.00,,FEW,0.00,633.00,VWS V14.01,2013-02-08 15:13:00,
2013-02-08 10:14:00,78.6,73.0,30.03,SW,225,2.0,7.0,83,0.00,,FEW,0.00,633.00,VWS V14.01,2013-02-08 15:14:00,
2013-02-08 10:16:00,78.7,72.8,30.03,SW,232,4.0,7.0,82,0.00,,FEW,0.00,633.00,VWS V14.01,2013-02-08 15:16:00,
2013-02-08 10:17:00,78.6,71.6,30.03,WSW,257,6.0,7.0,79,0.00,,FEW,0.00,633.00,VWS V14.01,2013-02-08 15:17:00,
2013-02-08 10:18:00,78.7,72.4,30.03,SW,217,4.0,7.0,81,0.00,,FEW,0.00,543.00,VWS V14.01,2013-02-08 15:18:00,
2013-02-08 10:19:00,78.7,72.4,30.03,SW,219,5.0,7.0,81,0.00,,FEW,0.00,635.00,VWS V14.01,2013-02-08 15:19:00,
2013-02-08 10:21:00,78.8,72.8,30.03,SW,232,3.0,9.0,82,0.00,,FEW,0.00,635.00,VWS V14.01,2013-02-08 15:21:00,
2013-02-08 10:23:00,78.7,72.4,30.03,SW,216,2.0,7.0,81,0.00,,FEW,0.00,635.00,VWS V14.01,2013-02-08 15:23:00,
2013-02-08 10:24:00,78.7,72.0,30.03,NW,319,2.0,8.0,80,0.00,,FEW,0.00,548.00,VWS V14.01,2013-02-08 15:24:00,
2013-02-08 10:26:00,78.8,71.7,30.03,SW,225,3.0,8.0,79,0.00,,FEW,0.00,657.00,VWS V14.01,2013-02-08 15:26:00,
2013-02-08 10:28:00,79.2,72.9,30.03,SW,232,5.0,8.0,81,0.00,,FEW,0.00,694.00,VWS V14.01,2013-02-08 15:28:00,
2013-02-08 10:29:00,79.3,72.6,30.03,SW,215,5.0,8.0,80,0.00,,FEW,0.00,719.00,VWS V14.01,2013-02-08 15:29:00,
2013-02-08 10:31:00,79.5,73.2,30.03,WSW,240,3.0,8.0,81,0.00,,FEW,0.00,691.00,VWS V14.01,2013-02-08 15:31:00,
2013-02-08 10:33:00,79.4,73.1,30.03,SW,232,11.0,11.0,81,0.00,,FEW,0.00,728.00,VWS V14.01,2013-02-08 15:33:00,
2013-02-08 10:34:00,79.4,72.7,30.03,SW,221,4.0,11.0,80,0.00,,FEW,0.00,728.00,VWS V14.01,2013-02-08 15:34:00,
2013-02-08 10:36:00,79.4,72.3,30.03,West,259,6.0,11.0,79,0.00,,FEW,0.00,698.00,VWS V14.01,2013-02-08 15:36:00,
2013-02-08 10:38:00,79.6,71.4,30.03,South,188,4.0,11.0,76,0.00,,FEW,0.00,721.00,VWS V14.01,2013-02-08 15:38:00,
2013-02-08 10:39:00,79.9,71.7,30.03,SSW,207,4.0,11.0,76,0.00,,FEW,0.00,715.00,VWS V14.01,2013-02-08 15:39:00,
2013-02-08 10:41:00,80.1,71.9,30.03,SSW,212,7.0,7.0,76,0.00,,FEW,0.00,745.00,VWS V14.01,2013-02-08 15:41:00,
2013-02-08 10:43:00,80.2,71.6,30.03,WSW,244,9.0,9.0,75,0.00,,FEW,0.00,745.00,VWS V14.01,2013-02-08 15:43:00,
2013-02-08 10:44:00,80.2,71.6,30.03,SW,231,6.0,9.0,75,0.00,,FEW,0.00,703.00,VWS V14.01,2013-02-08 15:44:00,
2013-02-08 10:46:00,80.5,71.5,30.03,WSW,253,4.0,9.0,74,0.00,,FEW,0.00,722.00,VWS V14.01,2013-02-08 15:46:00,
2013-02-08 10:48:00,80.7,71.7,30.03,WNW,294,2.0,9.0,74,0.00,,FEW,0.00,722.00,VWS V14.01,2013-02-08 15:48:00,
2013-02-08 10:49:00,80.8,71.7,30.03,West,263,5.0,9.0,74,0.00,,FEW,0.00,722.00,VWS V14.01,2013-02-08 15:49:00,
2013-02-08 10:50:00,80.9,71.8,30.03,NW,304,2.0,9.0,74,0.00,,FEW,0.00,722.00,VWS V14.01,2013-02-08 15:50:00,
2013-02-08 10:51:00,80.9,71.4,30.03,WNW,284,3.0,6.0,73,0.00,,FEW,0.00,118.00,VWS V14.01,2013-02-08 15:51:00,
2013-02-08 10:53:00,80.8,71.3,30.03,WNW,284,5.0,10.0,73,0.00,,FEW,0.00,118.00,VWS V14.01,2013-02-08 15:53:00,
2013-02-08 10:54:00,80.7,71.2,30.03,West,261,1.0,10.0,73,0.00,,FEW,0.00,717.00,VWS V14.01,2013-02-08 15:54:00,
2013-02-08 10:55:00,80.6,71.6,30.03,SW,225,6.0,10.0,74,0.00,,FEW,0.00,717.00,VWS V14.01,2013-02-08 15:55:00,
2013-02-08 10:56:00,80.5,71.5,30.03,WSW,250,4.0,12.0,74,0.00,,FEW,0.00,151.00,VWS V14.01,2013-02-08 15:56:00,
2013-02-08 10:58:00,80.3,71.7,30.03,WSW,257,5.0,12.0,75,0.00,,FEW,0.00,151.00,VWS V14.01,2013-02-08 15:58:00,
2013-02-08 10:59:00,80.3,71.7,30.03,West,280,2.0,12.0,75,0.00,,FEW,0.00,151.00,VWS V14.01,2013-02-08 15:59:00,
2013-02-08 11:00:00,80.1,71.9,30.03,WSW,257,3.0,12.0,76,0.00,,FEW,0.00,707.00,VWS V14.01,2013-02-08 16:00:00,
2013-02-08 11:01:00,79.9,71.7,30.04,WSW,246,2.0,5.0,76,0.00,,FEW,0.00,670.00,VWS V14.01,2013-02-08 16:01:00,
2013-02-08 11:03:00,79.8,71.9,30.04,WSW,255,5.0,7.0,77,0.00,,FEW,0.00,700.00,VWS V14.01,2013-02-08 16:03:00,
2013-02-08 11:04:00,79.8,71.9,30.04,WSW,249,10.0,10.0,77,0.00,,FEW,0.00,700.00,VWS V14.01,2013-02-08 16:04:00,
2013-02-08 11:05:00,79.9,72.1,30.04,SW,220,7.0,10.0,77,0.00,,FEW,0.00,700.00,VWS V14.01,2013-02-08 16:05:00,
2013-02-08 11:06:00,80.0,71.8,30.04,West,273,6.0,10.0,76,0.00,,FEW,0.00,698.00,VWS V14.01,2013-02-08 16:06:00,
2013-02-08 11:08:00,80.2,71.9,30.04,West,270,7.0,10.0,76,0.00,,FEW,0.00,701.00,VWS V14.01,2013-02-08 16:08:00,
2013-02-08 11:09:00,80.2,71.9,30.04,WSW,256,12.0,12.0,76,0.00,,FEW,0.00,701.00,VWS V14.01,2013-02-08 16:09:00,
2013-02-08 11:10:00,80.3,72.1,30.04,NW,309,3.0,12.0,76,0.00,,FEW,0.00,698.00,VWS V14.01,2013-02-08 16:10:00,
2013-02-08 11:12:00,80.5,72.2,30.04,West,278,5.0,7.0,76,0.00,,FEW,0.00,698.00,VWS V14.01,2013-02-08 16:12:00,
2013-02-08 11:13:00,80.7,72.0,30.04,WSW,242,1.0,7.0,75,0.00,,FEW,0.00,708.00,VWS V14.01,2013-02-08 16:13:00,
2013-02-08 11:14:00,80.9,72.2,30.04,West,260,4.0,7.0,75,0.00,,FEW,0.00,708.00,VWS V14.01,2013-02-08 16:14:00,
2013-02-08 11:16:00,81.1,72.0,30.03,WNW,302,6.0,7.0,74,0.00,,FEW,0.00,703.00,VWS V14.01,2013-02-08 16:16:00,
2013-02-08 11:17:00,81.1,72.0,30.03,WNW,284,6.0,8.0,74,0.00,,FEW,0.00,708.00,VWS V14.01,2013-02-08 16:17:00,
2013-02-08 11:19:00,81.0,72.3,30.03,SW,228,4.0,8.0,75,0.00,,FEW,0.00,708.00,VWS V14.01,2013-02-08 16:19:00,
2013-02-08 11:21:00,80.9,71.8,30.03,SW,214,7.0,8.0,74,0.00,,FEW,0.00,726.00,VWS V14.01,2013-02-08 16:21:00,
2013-02-08 11:22:00,80.8,71.7,30.03,SW,235,3.0,6.0,74,0.00,,FEW,0.00,726.00,VWS V14.01,2013-02-08 16:22:00,
2013-02-08 11:24:00,80.9,71.8,30.03,SW,215,2.0,7.0,74,0.00,,FEW,0.00,728.00,VWS V14.01,2013-02-08 16:24:00,
2013-02-08 11:25:00,81.0,71.9,30.03,SW,235,3.0,7.0,74,0.00,,FEW,0.00,728.00,VWS V14.01,2013-02-08 16:25:00,
2013-02-08 11:26:00,81.0,71.9,30.03,WSW,238,2.0,7.0,74,0.00,,FEW,0.00,729.00,VWS V14.01,2013-02-08 16:26:00,
2013-02-08 11:27:00,81.1,72.0,30.03,SSW,207,5.0,7.0,74,0.00,,FEW,0.00,745.00,VWS V14.01,2013-02-08 16:27:00,
2013-02-08 11:29:00,80.9,72.2,30.03,WSW,244,4.0,7.0,75,0.00,,FEW,0.00,770.00,VWS V14.01,2013-02-08 16:29:00,
2013-02-08 11:30:00,80.9,72.2,30.03,SW,229,6.0,7.0,75,0.00,,FEW,0.00,343.00,VWS V14.01,2013-02-08 16:30:00,
2013-02-08 11:31:00,80.8,72.1,30.02,WSW,247,4.0,7.0,75,0.00,,FEW,0.00,343.00,VWS V14.01,2013-02-08 16:31:00,
2013-02-08 11:32:00,80.7,72.0,30.02,SSW,206,7.0,8.0,75,0.00,,FEW,0.00,343.00,VWS V14.01,2013-02-08 16:32:00,
2013-02-08 11:34:00,80.6,71.9,30.02,South,188,4.0,9.0,75,0.00,,FEW,0.00,343.00,VWS V14.01,2013-02-08 16:34:00,
2013-02-08 11:35:00,80.5,71.8,30.02,SSW,201,3.0,9.0,75,0.00,,FEW,0.00,230.00,VWS V14.01,2013-02-08 16:35:00,
2013-02-08 11:36:00,80.5,71.8,30.02,West,270,4.0,9.0,75,0.00,,FEW,0.00,230.00,VWS V14.01,2013-02-08 16:36:00,
2013-02-08 11:37:00,80.5,71.8,30.02,WNW,283,2.0,9.0,75,0.00,,FEW,0.00,230.00,VWS V14.01,2013-02-08 16:37:00,
2013-02-08 11:39:00,80.5,71.8,30.02,West,266,2.0,9.0,75,0.00,,FEW,0.00,185.00,VWS V14.01,2013-02-08 16:39:00,
2013-02-08 11:40:00,80.5,71.8,30.02,SW,229,5.0,9.0,75,0.00,,FEW,0.00,132.00,VWS V14.01,2013-02-08 16:40:00,
2013-02-08 11:42:00,80.5,71.8,30.02,WSW,247,3.0,3.0,75,0.00,,FEW,0.00,148.00,VWS V14.01,2013-02-08 16:42:00,
2013-02-08 11:44:00,80.5,72.2,30.02,West,275,2.0,6.0,76,0.00,,FEW,0.00,872.00,VWS V14.01,2013-02-08 16:44:00,
2013-02-08 11:45:00,80.6,72.3,30.02,South,186,5.0,6.0,76,0.00,,FEW,0.00,872.00,VWS V14.01,2013-02-08 16:45:00,
2013-02-08 11:47:00,80.7,72.0,30.03,WSW,244,5.0,8.0,75,0.00,,FEW,0.00,872.00,VWS V14.01,2013-02-08 16:47:00,
2013-02-08 11:50:00,80.7,72.0,30.03,SSW,207,3.0,8.0,75,0.00,,FEW,0.00,179.00,VWS V14.01,2013-02-08 16:50:00,
2013-02-08 11:52:00,80.7,71.7,30.03,SW,225,3.0,6.0,74,0.00,,FEW,0.00,810.00,VWS V14.01,2013-02-08 16:52:00,
2013-02-08 11:55:00,81.0,71.9,30.03,NNW,333,7.0,7.0,74,0.00,,FEW,0.00,824.00,VWS V14.01,2013-02-08 16:55:00,
2013-02-08 11:57:00,81.2,71.7,30.03,West,279,5.0,9.0,73,0.00,,FEW,0.00,824.00,VWS V14.01,2013-02-08 16:57:00,
2013-02-08 12:00:00,81.2,71.7,30.03,WSW,248,4.0,9.0,73,0.00,,FEW,0.00,826.00,VWS V14.01,2013-02-08 17:00:00,
2013-02-08 12:01:00,81.3,71.8,30.03,SSW,207,7.0,9.0,73,0.00,,FEW,0.00,816.00,VWS V14.01,2013-02-08 17:01:00,
2013-02-08 12:02:00,81.5,72.0,30.03,SW,225,3.0,7.0,73,0.00,,FEW,0.00,816.00,VWS V14.01,2013-02-08 17:02:00,
2013-02-08 12:05:00,81.6,72.5,30.03,West,260,5.0,8.0,74,0.00,,FEW,0.00,788.00,VWS V14.01,2013-02-08 17:05:00,
2013-02-08 12:06:00,81.7,71.8,30.03,West,266,2.0,8.0,72,0.00,,FEW,0.00,788.00,VWS V14.01,2013-02-08 17:06:00,
2013-02-08 12:07:00,81.6,71.7,30.03,West,272,6.0,8.0,72,0.00,,FEW,0.00,782.00,VWS V14.01,2013-02-08 17:07:00,
2013-02-08 12:10:00,81.6,72.1,30.03,West,279,4.0,8.0,73,0.00,,FEW,0.00,775.00,VWS V14.01,2013-02-08 17:10:00,
2013-02-08 12:11:00,81.7,71.8,30.03,West,279,3.0,8.0,72,0.00,,FEW,0.00,780.00,VWS V14.01,2013-02-08 17:11:00,
2013-02-08 12:12:00,81.8,71.5,30.03,SSW,204,2.0,9.0,71,0.00,,FEW,0.00,786.00,VWS V14.01,2013-02-08 17:12:00,
2013-02-08 12:13:00,81.8,71.5,30.03,West,264,5.0,9.0,71,0.00,,FEW,0.00,786.00,VWS V14.01,2013-02-08 17:13:00,
2013-02-08 12:15:00,81.7,71.4,30.03,West,273,7.0,9.0,71,0.00,,FEW,0.00,786.00,VWS V14.01,2013-02-08 17:15:00,
2013-02-08 12:16:00,81.6,71.3,30.02,WSW,257,6.0,9.0,71,0.00,,FEW,0.00,777.00,VWS V14.01,2013-02-08 17:16:00,
2013-02-08 12:17:00,81.4,70.7,30.02,SW,236,7.0,11.0,70,0.00,,FEW,0.00,773.00,VWS V14.01,2013-02-08 17:17:00,
2013-02-08 12:18:00,81.4,70.7,30.02,SW,227,7.0,11.0,70,0.00,,FEW,0.00,756.00,VWS V14.01,2013-02-08 17:18:00,
2013-02-08 12:20:00,81.2,70.5,30.02,SSW,200,4.0,11.0,70,0.00,,FEW,0.00,786.00,VWS V14.01,2013-02-08 17:20:00,
2013-02-08 12:21:00,81.3,70.6,30.02,SW,223,4.0,11.0,70,0.00,,FEW,0.00,780.00,VWS V14.01,2013-02-08 17:21:00,
2013-02-08 12:22:00,81.4,71.1,30.02,West,268,3.0,6.0,71,0.00,,FEW,0.00,775.00,VWS V14.01,2013-02-08 17:22:00,
2013-02-08 12:23:00,81.5,70.8,30.02,West,279,1.0,6.0,70,0.00,,FEW,0.00,775.00,VWS V14.01,2013-02-08 17:23:00,
2013-02-08 12:25:00,81.8,70.6,30.02,NW,324,4.0,9.0,69,0.00,,FEW,0.00,779.00,VWS V14.01,2013-02-08 17:25:00,
2013-02-08 12:26:00,81.8,70.2,30.02,WSW,241,3.0,9.0,68,0.00,,FEW,0.00,777.00,VWS V14.01,2013-02-08 17:26:00,
2013-02-08 12:27:00,81.8,70.2,30.02,SW,236,3.0,9.0,68,0.00,,FEW,0.00,780.00,VWS V14.01,2013-02-08 17:27:00,
2013-02-08 12:28:00,81.8,70.6,30.02,WSW,238,7.0,9.0,69,0.00,,FEW,0.00,779.00,VWS V14.01,2013-02-08 17:28:00,
2013-02-08 12:30:00,82.0,70.8,30.02,WSW,246,8.0,9.0,69,0.00,,FEW,0.00,784.00,VWS V14.01,2013-02-08 17:30:00,
2013-02-08 12:31:00,82.2,71.0,30.02,WNW,286,5.0,6.0,69,0.00,,FEW,0.00,788.00,VWS V14.01,2013-02-08 17:31:00,
2013-02-08 12:33:00,82.4,70.8,30.02,WSW,247,3.0,7.0,68,0.00,,FEW,0.00,789.00,VWS V14.01,2013-02-08 17:33:00,
2013-02-08 12:36:00,82.5,70.4,30.02,WNW,288,4.0,10.0,67,0.00,,FEW,0.00,807.00,VWS V14.01,2013-02-08 17:36:00,
2013-02-08 12:38:00,82.6,70.5,30.02,WSW,241,3.0,10.0,67,0.00,,FEW,0.00,807.00,VWS V14.01,2013-02-08 17:38:00,
2013-02-08 12:39:00,82.5,70.4,30.02,NW,307,4.0,10.0,67,0.00,,FEW,0.00,803.00,VWS V14.01,2013-02-08 17:39:00,
2013-02-08 12:41:00,82.5,70.4,30.02,WNW,297,5.0,10.0,67,0.00,,FEW,0.00,793.00,VWS V14.01,2013-02-08 17:41:00,
2013-02-08 12:42:00,82.5,70.9,30.02,West,272,7.0,10.0,68,0.00,,FEW,0.00,789.00,VWS V14.01,2013-02-08 17:42:00,
2013-02-08 12:43:00,82.5,70.9,30.02,West,265,4.0,10.0,68,0.00,,FEW,0.00,786.00,VWS V14.01,2013-02-08 17:43:00,
2013-02-08 12:44:00,82.7,71.5,30.02,WNW,294,6.0,10.0,69,0.00,,FEW,0.00,788.00,VWS V14.01,2013-02-08 17:44:00,
2013-02-08 12:46:00,82.9,71.3,30.02,WSW,248,5.0,10.0,68,0.00,,FEW,0.00,788.00,VWS V14.01,2013-02-08 17:46:00,
2013-02-08 12:47:00,82.8,71.2,30.02,SSW,208,5.0,10.0,68,0.00,,FEW,0.00,789.00,VWS V14.01,2013-02-08 17:47:00,
2013-02-08 12:48:00,82.6,71.0,30.02,WSW,248,7.0,10.0,68,0.00,,FEW,0.00,789.00,VWS V14.01,2013-02-08 17:48:00,
2013-02-08 12:49:00,82.4,70.8,30.02,SW,229,6.0,10.0,68,0.00,,FEW,0.00,791.00,VWS V14.01,2013-02-08 17:49:00,
2013-02-08 12:51:00,82.2,71.0,30.02,SSW,210,4.0,10.0,69,0.00,,FEW,0.00,793.00,VWS V14.01,2013-02-08 17:51:00,
2013-02-08 12:52:00,82.2,71.0,30.02,NW,308,3.0,7.0,69,0.00,,FEW,0.00,788.00,VWS V14.01,2013-02-08 17:52:00,
2013-02-08 12:53:00,82.2,71.0,30.02,WSW,252,6.0,11.0,69,0.00,,FEW,0.00,789.00,VWS V14.01,2013-02-08 17:53:00,
2013-02-08 12:54:00,82.2,71.0,30.02,West,278,2.0,11.0,69,0.00,,FEW,0.00,786.00,VWS V14.01,2013-02-08 17:54:00,
2013-02-08 12:56:00,82.3,71.5,30.02,WSW,244,5.0,11.0,70,0.00,,FEW,0.00,786.00,VWS V14.01,2013-02-08 17:56:00,
2013-02-08 12:57:00,82.3,71.1,30.02,West,263,6.0,11.0,69,0.00,,FEW,0.00,784.00,VWS V14.01,2013-02-08 17:57:00,
2013-02-08 12:58:00,82.3,71.1,30.02,WSW,238,6.0,11.0,69,0.00,,FEW,0.00,780.00,VWS V14.01,2013-02-08 17:58:00,
2013-02-08 12:59:00,82.1,70.9,30.02,WSW,242,4.0,11.0,69,0.00,,FEW,0.00,775.00,VWS V14.01,2013-02-08 17:59:00,
2013-02-08 13:01:00,82.3,71.5,30.02,SW,227,5.0,11.0,70,0.00,,FEW,0.00,775.00,VWS V14.01,2013-02-08 18:01:00,
2013-02-08 13:02:00,82.4,71.2,30.02,WSW,258,4.0,8.0,69,0.00,,FEW,0.00,777.00,VWS V14.01,2013-02-08 18:02:00,
2013-02-08 13:03:00,82.5,71.3,30.02,WNW,284,1.0,8.0,69,0.00,,FEW,0.00,779.00,VWS V14.01,2013-02-08 18:03:00,
2013-02-08 13:04:00,82.6,71.4,30.02,SW,232,4.0,8.0,69,0.00,,FEW,0.00,777.00,VWS V14.01,2013-02-08 18:04:00,
2013-02-08 13:06:00,83.0,71.8,30.02,WNW,288,1.0,8.0,69,0.00,,FEW,0.00,775.00,VWS V14.01,2013-02-08 18:06:00,
2013-02-08 13:07:00,83.2,72.0,30.02,West,263,1.0,8.0,69,0.00,,FEW,0.00,773.00,VWS V14.01,2013-02-08 18:07:00,
2013-02-08 13:08:00,83.2,71.6,30.02,West,269,7.0,8.0,68,0.00,,FEW,0.00,775.00,VWS V14.01,2013-02-08 18:08:00,
2013-02-08 13:09:00,83.1,71.4,30.02,WNW,302,3.0,8.0,68,0.00,,FEW,0.00,773.00,VWS V14.01,2013-02-08 18:09:00,
2013-02-08 13:11:00,83.0,71.4,30.02,West,266,5.0,10.0,68,0.00,,FEW,0.00,768.00,VWS V14.01,2013-02-08 18:11:00,
2013-02-08 13:12:00,82.8,71.2,30.02,WSW,249,7.0,7.0,68,0.00,,FEW,0.00,770.00,VWS V14.01,2013-02-08 18:12:00,
2013-02-08 13:13:00,82.7,71.1,30.02,West,281,6.0,7.0,68,0.00,,FEW,0.00,766.00,VWS V14.01,2013-02-08 18:13:00,
2013-02-08 13:14:00,82.6,71.0,30.02,West,263,7.0,8.0,68,0.00,,FEW,0.00,766.00,VWS V14.01,2013-02-08 18:14:00,
2013-02-08 13:17:00,82.6,71.4,30.01,WNW,295,6.0,8.0,69,0.00,,FEW,0.00,761.00,VWS V14.01,2013-02-08 18:17:00,
2013-02-08 13:19:00,82.5,71.3,30.01,NW,321,6.0,8.0,69,0.00,,FEW,0.00,761.00,VWS V14.01,2013-02-08 18:19:00,
2013-02-08 13:22:00,82.4,71.2,30.01,WSW,258,3.0,5.0,69,0.00,,FEW,0.00,758.00,VWS V14.01,2013-02-08 18:22:00,
2013-02-08 13:24:00,82.1,70.9,30.01,WSW,250,2.0,9.0,69,0.00,,FEW,0.00,751.00,VWS V14.01,2013-02-08 18:24:00,
2013-02-08 13:27:00,82.2,71.9,30.01,WNW,284,5.0,9.0,71,0.00,,FEW,0.00,747.00,VWS V14.01,2013-02-08 18:27:00,
2013-02-08 13:28:00,82.2,71.9,30.01,NW,315,5.0,9.0,71,0.00,,FEW,0.00,747.00,VWS V14.01,2013-02-08 18:28:00,
2013-02-08 13:29:00,82.3,71.5,30.01,WSW,251,4.0,9.0,70,0.00,,FEW,0.00,749.00,VWS V14.01,2013-02-08 18:29:00,
2013-02-08 13:33:00,82.3,71.5,30.00,West,265,3.0,6.0,70,0.00,,FEW,0.00,747.00,VWS V14.01,2013-02-08 18:33:00,
2013-02-08 13:34:00,82.4,71.2,30.00,NW,316,4.0,8.0,69,0.00,,FEW,0.00,744.00,VWS V14.01,2013-02-08 18:34:00,
2013-02-08 13:35:00,82.4,71.2,30.00,WNW,296,5.0,8.0,69,0.00,,FEW,0.00,744.00,VWS V14.01,2013-02-08 18:35:00,
2013-02-08 13:38:00,82.4,71.6,30.00,WNW,302,7.0,8.0,70,0.00,,FEW,0.00,738.00,VWS V14.01,2013-02-08 18:38:00,
2013-02-08 13:39:00,82.3,71.1,30.00,WNW,294,4.0,8.0,69,0.00,,FEW,0.00,737.00,VWS V14.01,2013-02-08 18:39:00,
2013-02-08 13:40:00,82.3,71.1,30.00,WNW,290,3.0,8.0,69,0.00,,FEW,0.00,731.00,VWS V14.01,2013-02-08 18:40:00,
2013-02-08 13:43:00,82.8,71.6,30.00,WNW,300,4.0,5.0,69,0.00,,FEW,0.00,726.00,VWS V14.01,2013-02-08 18:43:00,
2013-02-08 13:44:00,82.8,71.6,30.00,West,275,2.0,5.0,69,0.00,,FEW,0.00,728.00,VWS V14.01,2013-02-08 18:44:00,
2013-02-08 13:46:00,83.0,71.8,29.99,West,278,5.0,7.0,69,0.00,,FEW,0.00,729.00,VWS V14.01,2013-02-08 18:46:00,
2013-02-08 13:49:00,82.7,71.1,29.99,WNW,285,7.0,7.0,68,0.00,,FEW,0.00,729.00,VWS V14.01,2013-02-08 18:49:00,
2013-02-08 13:51:00,82.6,71.4,29.99,NW,316,6.0,8.0,69,0.00,,FEW,0.00,724.00,VWS V14.01,2013-02-08 18:51:00,
2013-02-08 13:54:00,82.3,71.1,29.99,West,271,5.0,9.0,69,0.00,,FEW,0.00,717.00,VWS V14.01,2013-02-08 18:54:00,
2013-02-08 13:56:00,82.3,71.1,29.99,West,269,3.0,10.0,69,0.00,,FEW,0.00,717.00,VWS V14.01,2013-02-08 18:56:00,
2013-02-08 13:59:00,82.2,71.4,29.99,NW,304,8.0,10.0,70,0.00,,FEW,0.00,726.00,VWS V14.01,2013-02-08 18:59:00,
2013-02-08 14:00:00,82.3,71.1,29.99,NW,323,8.0,10.0,69,0.00,,FEW,0.00,717.00,VWS V14.01,2013-02-08 19:00:00,
2013-02-08 14:01:00,82.2,71.4,29.99,West,277,3.0,10.0,70,0.00,,FEW,0.00,710.00,VWS V14.01,2013-02-08 19:01:00,
2013-02-08 14:04:00,82.2,71.4,29.99,WNW,292,6.0,8.0,70,0.00,,FEW,0.00,698.00,VWS V14.01,2013-02-08 19:04:00,
2013-02-08 14:05:00,82.4,71.6,29.99,WNW,298,3.0,8.0,70,0.00,,FEW,0.00,694.00,VWS V14.01,2013-02-08 19:05:00,
2013-02-08 14:06:00,82.4,71.6,29.99,NW,312,6.0,9.0,70,0.00,,FEW,0.00,694.00,VWS V14.01,2013-02-08 19:06:00,
2013-02-08 14:09:00,82.1,71.3,29.99,NW,307,5.0,9.0,70,0.00,,FEW,0.00,693.00,VWS V14.01,2013-02-08 19:09:00,
2013-02-08 14:10:00,81.9,71.2,29.99,West,263,8.0,9.0,70,0.00,,FEW,0.00,691.00,VWS V14.01,2013-02-08 19:10:00,
2013-02-08 14:11:00,81.7,71.4,29.99,WNW,296,5.0,9.0,71,0.00,,FEW,0.00,687.00,VWS V14.01,2013-02-08 19:11:00,
2013-02-08 14:14:00,81.7,71.8,29.99,WNW,295,4.0,9.0,72,0.00,,FEW,0.00,682.00,VWS V14.01,2013-02-08 19:14:00,
2013-02-08 14:15:00,81.7,71.8,29.99,SW,217,5.0,9.0,72,0.00,,FEW,0.00,677.00,VWS V14.01,2013-02-08 19:15:00,
2013-02-08 14:16:00,81.6,71.7,29.99,WNW,284,4.0,9.0,72,0.00,,FEW,0.00,677.00,VWS V14.01,2013-02-08 19:16:00,
2013-02-08 14:19:00,81.6,71.3,29.99,WNW,288,8.0,9.0,71,0.00,,FEW,0.00,670.00,VWS V14.01,2013-02-08 19:19:00,
2013-02-08 14:20:00,81.5,71.6,29.99,WNW,289,6.0,9.0,72,0.00,,FEW,0.00,670.00,VWS V14.01,2013-02-08 19:20:00,
2013-02-08 14:21:00,81.4,71.5,29.99,North,355,3.0,9.0,72,0.00,,FEW,0.00,666.00,VWS V14.01,2013-02-08 19:21:00,
2013-02-08 14:22:00,81.5,72.0,29.99,NW,311,6.0,6.0,73,0.00,,FEW,0.00,664.00,VWS V14.01,2013-02-08 19:22:00,
2013-02-08 14:24:00,81.9,72.0,29.99,WNW,294,4.0,8.0,72,0.00,,FEW,0.00,657.00,VWS V14.01,2013-02-08 19:24:00,
2013-02-08 14:25:00,81.9,71.6,29.99,NW,304,4.0,8.0,71,0.00,,FEW,0.00,657.00,VWS V14.01,2013-02-08 19:25:00,
2013-02-08 14:26:00,81.9,71.6,29.99,West,272,5.0,8.0,71,0.00,,FEW,0.00,649.00,VWS V14.01,2013-02-08 19:26:00,
2013-02-08 14:27:00,81.9,71.6,29.99,NW,309,4.0,8.0,71,0.00,,FEW,0.00,649.00,VWS V14.01,2013-02-08 19:27:00,
2013-02-08 14:29:00,81.7,71.4,29.99,NW,306,2.0,9.0,71,0.00,,FEW,0.00,647.00,VWS V14.01,2013-02-08 19:29:00,
2013-02-08 14:30:00,81.6,71.7,29.99,West,280,3.0,9.0,72,0.00,,FEW,0.00,647.00,VWS V14.01,2013-02-08 19:30:00,
2013-02-08 14:31:00,81.6,71.7,29.99,NW,312,7.0,10.0,72,0.00,,FEW,0.00,649.00,VWS V14.01,2013-02-08 19:31:00,
2013-02-08 14:32:00,81.5,71.6,29.99,NW,308,5.0,7.0,72,0.00,,FEW,0.00,647.00,VWS V14.01,2013-02-08 19:32:00,
2013-02-08 14:34:00,81.5,72.4,29.99,NNW,329,5.0,7.0,74,0.00,,FEW,0.00,640.00,VWS V14.01,2013-02-08 19:34:00,
2013-02-08 14:35:00,81.6,72.5,29.99,WNW,289,5.0,7.0,74,0.00,,FEW,0.00,633.00,VWS V14.01,2013-02-08 19:35:00,
2013-02-08 14:36:00,81.6,72.5,29.99,WSW,242,5.0,7.0,74,0.00,,FEW,0.00,636.00,VWS V14.01,2013-02-08 19:36:00,
2013-02-08 14:37:00,81.6,72.1,29.99,West,274,4.0,7.0,73,0.00,,FEW,0.00,631.00,VWS V14.01,2013-02-08 19:37:00,
2013-02-08 14:39:00,81.5,72.4,29.99,West,279,7.0,9.0,74,0.00,,FEW,0.00,629.00,VWS V14.01,2013-02-08 19:39:00,
2013-02-08 14:40:00,81.3,71.8,29.99,NW,318,6.0,9.0,73,0.00,,FEW,0.00,622.00,VWS V14.01,2013-02-08 19:40:00,
2013-02-08 14:41:00,81.1,71.6,29.99,West,264,3.0,5.0,73,0.00,,FEW,0.00,622.00,VWS V14.01,2013-02-08 19:41:00,
2013-02-08 14:42:00,81.0,71.9,29.99,NW,305,1.0,7.0,74,0.00,,FEW,0.00,635.00,VWS V14.01,2013-02-08 19:42:00,
2013-02-08 14:44:00,81.1,72.0,29.99,West,265,3.0,8.0,74,0.00,,FEW,0.00,622.00,VWS V14.01,2013-02-08 19:44:00,
2013-02-08 14:45:00,81.1,72.4,29.99,West,261,7.0,8.0,75,0.00,,FEW,0.00,622.00,VWS V14.01,2013-02-08 19:45:00,
2013-02-08 14:46:00,81.0,72.3,29.99,NW,322,3.0,8.0,75,0.00,,FEW,0.00,621.00,VWS V14.01,2013-02-08 19:46:00,
2013-02-08 14:47:00,81.1,72.4,29.99,West,279,4.0,8.0,75,0.00,,FEW,0.00,626.00,VWS V14.01,2013-02-08 19:47:00,
2013-02-08 14:49:00,81.2,72.5,29.99,West,275,3.0,8.0,75,0.00,,FEW,0.00,635.00,VWS V14.01,2013-02-08 19:49:00,
2013-02-08 14:50:00,81.3,72.6,29.99,WNW,302,3.0,8.0,75,0.00,,FEW,0.00,635.00,VWS V14.01,2013-02-08 19:50:00,
2013-02-08 14:51:00,81.4,72.7,29.99,North,9,0.0,2.0,75,0.00,,FEW,0.00,452.00,VWS V14.01,2013-02-08 19:51:00,
2013-02-08 14:52:00,81.5,72.4,29.99,West,278,6.0,6.0,74,0.00,,FEW,0.00,452.00,VWS V14.01,2013-02-08 19:52:00,
2013-02-08 14:54:00,81.5,72.8,29.99,SW,225,1.0,6.0,75,0.00,,FEW,0.00,605.00,VWS V14.01,2013-02-08 19:54:00,
2013-02-08 14:55:00,81.6,72.5,29.99,WNW,291,6.0,8.0,74,0.00,,FEW,0.00,594.00,VWS V14.01,2013-02-08 19:55:00,
2013-02-08 14:56:00,81.5,72.4,29.99,West,281,6.0,8.0,74,0.00,,FEW,0.00,591.00,VWS V14.01,2013-02-08 19:56:00,
2013-02-08 14:57:00,81.5,72.4,29.99,NW,309,4.0,8.0,74,0.00,,FEW,0.00,584.00,VWS V14.01,2013-02-08 19:57:00,
2013-02-08 15:00:00,81.2,71.7,29.99,WSW,239,5.0,8.0,73,0.00,,FEW,0.00,568.00,VWS V14.01,2013-02-08 20:00:00,
2013-02-08 15:01:00,81.1,71.6,29.99,NNW,343,3.0,8.0,73,0.00,,FEW,0.00,566.00,VWS V14.01,2013-02-08 20:01:00,
2013-02-08 15:02:00,81.2,72.1,29.99,WNW,292,6.0,6.0,74,0.00,,FEW,0.00,566.00,VWS V14.01,2013-02-08 20:02:00,
2013-02-08 15:05:00,81.2,72.1,29.99,WNW,302,7.0,9.0,74,0.00,,FEW,0.00,566.00,VWS V14.01,2013-02-08 20:05:00,
2013-02-08 15:06:00,81.1,71.6,29.99,WSW,245,4.0,9.0,73,0.00,,FEW,0.00,557.00,VWS V14.01,2013-02-08 20:06:00,
2013-02-08 15:08:00,81.0,71.9,29.99,WSW,255,5.0,9.0,74,0.00,,FEW,0.00,559.00,VWS V14.01,2013-02-08 20:08:00,
2013-02-08 15:10:00,81.1,72.0,29.99,NW,321,3.0,9.0,74,0.00,,FEW,0.00,554.00,VWS V14.01,2013-02-08 20:10:00,
2013-02-08 15:11:00,81.2,72.1,29.99,NNW,342,5.0,9.0,74,0.00,,FEW,0.00,545.00,VWS V14.01,2013-02-08 20:11:00,
2013-02-08 15:12:00,81.4,72.3,29.99,West,272,3.0,3.0,74,0.00,,FEW,0.00,547.00,VWS V14.01,2013-02-08 20:12:00,
2013-02-08 15:13:00,81.5,72.0,29.99,NW,323,5.0,5.0,73,0.00,,FEW,0.00,541.00,VWS V14.01,2013-02-08 20:13:00,
2013-02-08 15:15:00,81.4,71.9,29.99,WNW,282,6.0,8.0,73,0.00,,FEW,0.00,540.00,VWS V14.01,2013-02-08 20:15:00,
2013-02-08 15:16:00,81.3,71.8,29.99,WNW,290,7.0,8.0,73,0.00,,FEW,0.00,555.00,VWS V14.01,2013-02-08 20:16:00,
2013-02-08 15:17:00,81.3,71.8,29.99,NW,305,3.0,8.0,73,0.00,,FEW,0.00,533.00,VWS V14.01,2013-02-08 20:17:00,
2013-02-08 15:18:00,81.2,71.7,29.99,NNW,329,6.0,8.0,73,0.00,,FEW,0.00,527.00,VWS V14.01,2013-02-08 20:18:00,
2013-02-08 15:20:00,81.2,71.7,29.99,NNW,334,2.0,8.0,73,0.00,,FEW,0.00,619.00,VWS V14.01,2013-02-08 20:20:00,
2013-02-08 15:21:00,81.2,71.7,29.99,WNW,301,6.0,8.0,73,0.00,,FEW,0.00,619.00,VWS V14.01,2013-02-08 20:21:00,
2013-02-08 15:22:00,81.2,71.7,29.99,WNW,290,6.0,6.0,73,0.00,,FEW,0.00,380.00,VWS V14.01,2013-02-08 20:22:00,
2013-02-08 15:23:00,81.1,71.6,29.99,WSW,250,9.0,9.0,73,0.00,,FEW,0.00,380.00,VWS V14.01,2013-02-08 20:23:00,
2013-02-08 15:25:00,80.8,71.3,29.99,WNW,296,3.0,9.0,73,0.00,,FEW,0.00,520.00,VWS V14.01,2013-02-08 20:25:00,
2013-02-08 15:26:00,80.7,71.2,29.99,NW,309,3.0,9.0,73,0.00,,FEW,0.00,519.00,VWS V14.01,2013-02-08 20:26:00,
2013-02-08 15:27:00,80.8,71.7,29.99,West,273,4.0,9.0,74,0.00,,FEW,0.00,508.00,VWS V14.01,2013-02-08 20:27:00,
2013-02-08 15:28:00,80.9,71.8,29.99,NW,304,3.0,9.0,74,0.00,,FEW,0.00,508.00,VWS V14.01,2013-02-08 20:28:00,
2013-02-08 15:30:00,81.0,71.5,29.99,WNW,289,2.0,10.0,73,0.00,,FEW,0.00,503.00,VWS V14.01,2013-02-08 20:30:00,
2013-02-08 15:31:00,81.0,71.5,29.97,West,269,2.0,10.0,73,0.00,,FEW,0.00,497.00,VWS V14.01,2013-02-08 20:31:00,
2013-02-08 15:32:00,81.1,71.6,29.97,NW,315,3.0,7.0,73,0.00,,FEW,0.00,496.00,VWS V14.01,2013-02-08 20:32:00,
2013-02-08 15:33:00,81.1,71.6,29.97,WSW,244,4.0,7.0,73,0.00,,FEW,0.00,492.00,VWS V14.01,2013-02-08 20:33:00,
2013-02-08 15:35:00,81.1,71.2,29.97,WNW,301,1.0,8.0,72,0.00,,FEW,0.00,485.00,VWS V14.01,2013-02-08 20:35:00,
2013-02-08 15:36:00,81.1,71.2,29.97,NW,306,7.0,11.0,72,0.00,,FEW,0.00,483.00,VWS V14.01,2013-02-08 20:36:00,
2013-02-08 15:37:00,81.1,71.2,29.97,SW,217,4.0,11.0,72,0.00,,FEW,0.00,475.00,VWS V14.01,2013-02-08 20:37:00,
2013-02-08 15:38:00,81.0,71.1,29.97,WNW,300,6.0,12.0,72,0.00,,FEW,0.00,471.00,VWS V14.01,2013-02-08 20:38:00,
2013-02-08 15:40:00,80.7,70.8,29.97,WNW,291,5.0,12.0,72,0.00,,FEW,0.00,462.00,VWS V14.01,2013-02-08 20:40:00,
2013-02-08 15:41:00,80.7,71.2,29.97,NW,307,3.0,3.0,73,0.00,,FEW,0.00,454.00,VWS V14.01,2013-02-08 20:41:00,
2013-02-08 15:42:00,80.8,71.3,29.97,West,273,2.0,6.0,73,0.00,,FEW,0.00,462.00,VWS V14.01,2013-02-08 20:42:00,
2013-02-08 15:44:00,80.9,71.4,29.97,WNW,289,4.0,6.0,73,0.00,,FEW,0.00,457.00,VWS V14.01,2013-02-08 20:44:00,
2013-02-08 15:45:00,81.2,71.7,29.97,West,272,6.0,9.0,73,0.00,,FEW,0.00,450.00,VWS V14.01,2013-02-08 20:45:00,
2013-02-08 15:46:00,81.2,71.3,29.97,NW,318,6.0,9.0,72,0.00,,FEW,0.00,446.00,VWS V14.01,2013-02-08 20:46:00,
2013-02-08 15:47:00,81.1,71.6,29.97,WSW,258,5.0,9.0,73,0.00,,FEW,0.00,446.00,VWS V14.01,2013-02-08 20:47:00,
2013-02-08 15:49:00,81.0,71.5,29.97,WSW,257,8.0,9.0,73,0.00,,FEW,0.00,445.00,VWS V14.01,2013-02-08 20:49:00,
2013-02-08 15:50:00,80.9,71.4,29.97,WNW,300,6.0,9.0,73,0.00,,FEW,0.00,439.00,VWS V14.01,2013-02-08 20:50:00,
2013-02-08 15:51:00,80.8,71.3,29.97,WSW,255,2.0,5.0,73,0.00,,FEW,0.00,436.00,VWS V14.01,2013-02-08 20:51:00,
2013-02-08 15:52:00,80.7,71.2,29.97,West,265,7.0,7.0,73,0.00,,FEW,0.00,432.00,VWS V14.01,2013-02-08 20:52:00,
2013-02-08 15:54:00,80.6,71.2,29.97,WNW,292,4.0,7.0,73,0.00,,FEW,0.00,431.00,VWS V14.01,2013-02-08 20:54:00,
2013-02-08 15:56:00,80.4,71.4,29.97,WNW,293,5.0,7.0,74,0.00,,FEW,0.00,425.00,VWS V14.01,2013-02-08 20:56:00,
2013-02-08 15:57:00,80.4,71.4,29.97,West,271,9.0,9.0,74,0.00,,FEW,0.00,422.00,VWS V14.01,2013-02-08 20:57:00,
2013-02-08 15:58:00,80.3,71.3,29.97,NE,40,3.0,9.0,74,0.00,,FEW,0.00,418.00,VWS V14.01,2013-02-08 20:58:00,
2013-02-08 15:59:00,80.3,71.3,29.97,WNW,302,10.0,10.0,74,0.00,,FEW,0.00,413.00,VWS V14.01,2013-02-08 20:59:00,
2013-02-08 16:01:00,80.2,71.2,29.97,West,270,4.0,10.0,74,0.00,,FEW,0.00,410.00,VWS V14.01,2013-02-08 21:01:00,
2013-02-08 16:02:00,80.1,71.1,29.97,NW,315,7.0,9.0,74,0.00,,FEW,0.00,401.00,VWS V14.01,2013-02-08 21:02:00,
2013-02-08 16:03:00,80.0,71.0,29.97,WNW,288,5.0,9.0,74,0.00,,FEW,0.00,396.00,VWS V14.01,2013-02-08 21:03:00,
2013-02-08 16:04:00,79.9,71.3,29.97,WNW,292,3.0,9.0,75,0.00,,FEW,0.00,396.00,VWS V14.01,2013-02-08 21:04:00,
2013-02-08 16:06:00,79.9,71.3,29.97,NW,319,7.0,10.0,75,0.00,,FEW,0.00,390.00,VWS V14.01,2013-02-08 21:06:00,
2013-02-08 16:07:00,79.9,71.3,29.97,WNW,289,2.0,10.0,75,0.00,,FEW,0.00,387.00,VWS V14.01,2013-02-08 21:07:00,
2013-02-08 16:08:00,80.0,71.4,29.97,North,5,2.0,10.0,75,0.00,,FEW,0.00,380.00,VWS V14.01,2013-02-08 21:08:00,
2013-02-08 16:09:00,80.0,71.4,29.97,NW,304,3.0,10.0,75,0.00,,FEW,0.00,376.00,VWS V14.01,2013-02-08 21:09:00,
2013-02-08 16:11:00,80.1,71.5,29.97,NW,305,2.0,10.0,75,0.00,,FEW,0.00,373.00,VWS V14.01,2013-02-08 21:11:00,
2013-02-08 16:12:00,80.2,71.6,29.97,NW,319,1.0,4.0,75,0.00,,FEW,0.00,366.00,VWS V14.01,2013-02-08 21:12:00,
2013-02-08 16:13:00,80.2,71.6,29.97,North,5,2.0,4.0,75,0.00,,FEW,0.00,366.00,VWS V14.01,2013-02-08 21:13:00,
2013-02-08 16:14:00,80.3,71.7,29.97,WNW,288,5.0,5.0,75,0.00,,FEW,0.00,360.00,VWS V14.01,2013-02-08 21:14:00,
2013-02-08 16:16:00,80.4,71.8,29.97,West,273,3.0,5.0,75,0.00,,FEW,0.00,355.00,VWS V14.01,2013-02-08 21:16:00,
2013-02-08 16:17:00,80.5,71.8,29.97,NW,321,3.0,6.0,75,0.00,,FEW,0.00,352.00,VWS V14.01,2013-02-08 21:17:00,
2013-02-08 16:18:00,80.5,71.8,29.97,WSW,240,3.0,9.0,75,0.00,,FEW,0.00,348.00,VWS V14.01,2013-02-08 21:18:00,
2013-02-08 16:20:00,80.4,71.4,29.97,NW,306,8.0,10.0,74,0.00,,FEW,0.00,345.00,VWS V14.01,2013-02-08 21:20:00,
2013-02-08 16:21:00,80.2,71.2,29.97,West,278,8.0,8.0,74,0.00,,FEW,0.00,338.00,VWS V14.01,2013-02-08 21:21:00,
2013-02-08 16:22:00,80.1,71.5,29.97,NNW,340,3.0,8.0,75,0.00,,FEW,0.00,334.00,VWS V14.01,2013-02-08 21:22:00,
2013-02-08 16:23:00,80.0,71.4,29.97,West,274,8.0,11.0,75,0.00,,FEW,0.00,329.00,VWS V14.01,2013-02-08 21:23:00,
2013-02-08 16:25:00,79.8,71.2,29.97,WNW,300,6.0,11.0,75,0.00,,FEW,0.00,323.00,VWS V14.01,2013-02-08 21:25:00,
2013-02-08 16:26:00,79.8,71.6,29.97,WNW,302,9.0,11.0,76,0.00,,FEW,0.00,320.00,VWS V14.01,2013-02-08 21:26:00,
2013-02-08 16:27:00,79.7,71.5,29.97,WNW,283,7.0,11.0,76,0.00,,FEW,0.00,316.00,VWS V14.01,2013-02-08 21:27:00,
2013-02-08 16:29:00,79.7,71.5,29.97,NW,307,6.0,11.0,76,0.00,,FEW,0.00,308.00,VWS V14.01,2013-02-08 21:29:00,
2013-02-08 16:30:00,79.6,71.4,29.97,West,268,8.0,11.0,76,0.00,,FEW,0.00,306.00,VWS V14.01,2013-02-08 21:30:00,
2013-02-08 16:31:00,79.4,71.6,29.97,WNW,298,5.0,5.0,77,0.00,,FEW,0.00,302.00,VWS V14.01,2013-02-08 21:31:00,
2013-02-08 16:32:00,79.4,71.6,29.97,WNW,302,4.0,8.0,77,0.00,,FEW,0.00,297.00,VWS V14.01,2013-02-08 21:32:00,
2013-02-08 16:34:00,79.3,71.5,29.97,West,259,6.0,8.0,77,0.00,,FEW,0.00,294.00,VWS V14.01,2013-02-08 21:34:00,
2013-02-08 16:35:00,79.2,71.4,29.97,WSW,238,3.0,8.0,77,0.00,,FEW,0.00,292.00,VWS V14.01,2013-02-08 21:35:00,
2013-02-08 16:36:00,79.2,71.4,29.97,WNW,299,9.0,9.0,77,0.00,,FEW,0.00,283.00,VWS V14.01,2013-02-08 21:36:00,
2013-02-08 16:37:00,79.2,71.4,29.97,WNW,300,4.0,9.0,77,0.00,,FEW,0.00,279.00,VWS V14.01,2013-02-08 21:37:00,
2013-02-08 16:39:00,79.1,71.7,29.97,WNW,290,10.0,10.0,78,0.00,,FEW,0.00,276.00,VWS V14.01,2013-02-08 21:39:00,
2013-02-08 16:40:00,79.1,71.7,29.97,NW,317,7.0,10.0,78,0.00,,FEW,0.00,272.00,VWS V14.01,2013-02-08 21:40:00,
2013-02-08 16:41:00,79.1,71.7,29.97,WNW,284,4.0,7.0,78,0.00,,FEW,0.00,265.00,VWS V14.01,2013-02-08 21:41:00,
2013-02-08 16:43:00,79.1,71.7,29.97,West,281,8.0,8.0,78,0.00,,FEW,0.00,262.00,VWS V14.01,2013-02-08 21:43:00,
2013-02-08 16:44:00,79.0,71.6,29.97,WNW,298,9.0,9.0,78,0.00,,FEW,0.00,257.00,VWS V14.01,2013-02-08 21:44:00,
2013-02-08 16:45:00,79.0,71.6,29.97,WNW,296,6.0,10.0,78,0.00,,FEW,0.00,253.00,VWS V14.01,2013-02-08 21:45:00,
2013-02-08 16:47:00,78.9,71.5,29.98,NNW,338,1.0,11.0,78,0.00,,FEW,0.00,250.00,VWS V14.01,2013-02-08 21:47:00,
2013-02-08 16:48:00,78.8,71.7,29.98,NW,319,4.0,11.0,79,0.00,,FEW,0.00,244.00,VWS V14.01,2013-02-08 21:48:00,
2013-02-08 16:49:00,78.8,71.7,29.98,WNW,291,1.0,11.0,79,0.00,,FEW,0.00,239.00,VWS V14.01,2013-02-08 21:49:00,
2013-02-08 16:50:00,78.7,71.6,29.98,West,268,3.0,11.0,79,0.00,,FEW,0.00,237.00,VWS V14.01,2013-02-08 21:50:00,
2013-02-08 16:52:00,78.8,71.7,29.98,West,273,5.0,8.0,79,0.00,,FEW,0.00,229.00,VWS V14.01,2013-02-08 21:52:00,
2013-02-08 16:53:00,78.8,71.7,29.98,NW,307,6.0,8.0,79,0.00,,FEW,0.00,225.00,VWS V14.01,2013-02-08 21:53:00,
2013-02-08 16:54:00,78.8,71.7,29.98,NW,325,6.0,10.0,79,0.00,,FEW,0.00,218.00,VWS V14.01,2013-02-08 21:54:00,
2013-02-08 16:55:00,78.7,71.6,29.98,NNW,327,9.0,10.0,79,0.00,,FEW,0.00,218.00,VWS V14.01,2013-02-08 21:55:00,
2013-02-08 16:57:00,78.6,71.6,29.98,NW,307,5.0,10.0,79,0.00,,FEW,0.00,211.00,VWS V14.01,2013-02-08 21:57:00,
2013-02-08 16:58:00,78.5,71.8,29.98,WSW,248,4.0,10.0,80,0.00,,FEW,0.00,207.00,VWS V14.01,2013-02-08 21:58:00,
2013-02-08 17:00:00,78.4,71.7,29.98,West,275,6.0,10.0,80,0.00,,FEW,0.00,199.00,VWS V14.01,2013-02-08 22:00:00,
2013-02-08 17:02:00,78.3,72.0,29.98,West,262,2.0,3.0,81,0.00,,FEW,0.00,192.00,VWS V14.01,2013-02-08 22:02:00,
2013-02-08 17:03:00,78.2,71.9,29.98,NW,310,2.0,7.0,81,0.00,,FEW,0.00,188.00,VWS V14.01,2013-02-08 22:03:00,
2013-02-08 17:05:00,78.3,72.0,29.98,NNW,331,5.0,7.0,81,0.00,,FEW,0.00,185.00,VWS V14.01,2013-02-08 22:05:00,
2013-02-08 17:07:00,78.2,71.9,29.98,WNW,299,3.0,9.0,81,0.00,,FEW,0.00,179.00,VWS V14.01,2013-02-08 22:07:00,
2013-02-08 17:08:00,78.2,71.9,29.98,West,272,3.0,9.0,81,0.00,,FEW,0.00,172.00,VWS V14.01,2013-02-08 22:08:00,
2013-02-08 17:10:00,78.2,71.9,29.98,NW,312,4.0,9.0,81,0.00,,FEW,0.00,165.00,VWS V14.01,2013-02-08 22:10:00,
2013-02-08 17:12:00,78.1,71.8,29.98,WNW,292,3.0,6.0,81,0.00,,FEW,0.00,158.00,VWS V14.01,2013-02-08 22:12:00,
2013-02-08 17:13:00,78.0,72.1,29.98,NW,311,3.0,7.0,82,0.00,,FEW,0.00,155.00,VWS V14.01,2013-02-08 22:13:00,
2013-02-08 17:15:00,78.0,72.1,29.98,NW,326,2.0,7.0,82,0.00,,FEW,0.00,148.00,VWS V14.01,2013-02-08 22:15:00,
2013-02-08 17:17:00,78.0,72.1,29.97,NW,309,3.0,7.0,82,0.00,,FEW,0.00,142.00,VWS V14.01,2013-02-08 22:17:00,
2013-02-08 17:19:00,77.9,72.0,29.97,NW,306,5.0,7.0,82,0.00,,FEW,0.00,137.00,VWS V14.01,2013-02-08 22:19:00,
2013-02-08 17:20:00,77.9,72.0,29.97,WNW,293,7.0,11.0,82,0.00,,FEW,0.00,130.00,VWS V14.01,2013-02-08 22:20:00,
2013-02-08 17:21:00,77.9,72.0,29.97,NW,320,3.0,11.0,82,0.00,,FEW,0.00,123.00,VWS V14.01,2013-02-08 22:21:00,
2013-02-08 17:22:00,77.8,71.9,29.97,WNW,293,4.0,9.0,82,0.00,,FEW,0.00,125.00,VWS V14.01,2013-02-08 22:22:00,
2013-02-08 17:24:00,77.8,71.9,29.97,NW,309,3.0,9.0,82,0.00,,FEW,0.00,120.00,VWS V14.01,2013-02-08 22:24:00,
2013-02-08 17:25:00,77.7,71.8,29.97,WNW,297,3.0,9.0,82,0.00,,FEW,0.00,107.00,VWS V14.01,2013-02-08 22:25:00,
2013-02-08 17:26:00,77.7,72.1,29.97,West,281,6.0,9.0,83,0.00,,FEW,0.00,107.00,VWS V14.01,2013-02-08 22:26:00,
2013-02-08 17:27:00,77.7,71.8,29.97,NNW,331,2.0,12.0,82,0.00,,FEW,0.00,51.00,VWS V14.01,2013-02-08 22:27:00,
2013-02-08 17:29:00,77.6,72.0,29.97,WNW,295,7.0,12.0,83,0.00,,FEW,0.00,42.00,VWS V14.01,2013-02-08 22:29:00,
2013-02-08 17:30:00,77.5,71.9,29.97,NW,305,3.0,12.0,83,0.00,,FEW,0.00,46.00,VWS V14.01,2013-02-08 22:30:00,
2013-02-08 17:31:00,77.5,71.9,29.97,NW,310,3.0,12.0,83,0.00,,FEW,0.00,46.00,VWS V14.01,2013-02-08 22:31:00,
2013-02-08 17:32:00,77.4,71.8,29.97,NW,309,2.0,5.0,83,0.00,,FEW,0.00,67.00,VWS V14.01,2013-02-08 22:32:00,
2013-02-08 17:34:00,77.4,71.8,29.97,NW,310,2.0,8.0,83,0.00,,FEW,0.00,54.00,VWS V14.01,2013-02-08 22:34:00,
2013-02-08 17:36:00,77.3,71.7,29.97,NW,307,2.0,8.0,83,0.00,,FEW,0.00,74.00,VWS V14.01,2013-02-08 22:36:00,
2013-02-08 17:37:00,77.3,71.7,29.97,WNW,294,4.0,8.0,83,0.00,,FEW,0.00,69.00,VWS V14.01,2013-02-08 22:37:00,
2013-02-08 17:39:00,77.2,71.6,29.97,West,260,5.0,8.0,83,0.00,,FEW,0.00,63.00,VWS V14.01,2013-02-08 22:39:00,
2013-02-08 17:41:00,77.1,71.9,29.97,WNW,302,9.0,9.0,84,0.00,,FEW,0.00,60.00,VWS V14.01,2013-02-08 22:41:00,
2013-02-08 17:42:00,77.1,71.9,29.97,West,268,5.0,7.0,84,0.00,,FEW,0.00,56.00,VWS V14.01,2013-02-08 22:42:00,
2013-02-08 17:44:00,77.0,71.8,29.97,WSW,248,6.0,7.0,84,0.00,,FEW,0.00,53.00,VWS V14.01,2013-02-08 22:44:00,
2013-02-08 17:46:00,76.9,71.7,29.98,WNW,288,9.0,9.0,84,0.00,,FEW,0.00,49.00,VWS V14.01,2013-02-08 22:46:00,
2013-02-08 17:47:00,76.9,71.7,29.98,WNW,303,8.0,9.0,84,0.00,,FEW,0.00,42.00,VWS V14.01,2013-02-08 22:47:00,
2013-02-08 17:49:00,76.8,71.6,29.98,NW,310,1.0,9.0,84,0.00,,FEW,0.00,37.00,VWS V14.01,2013-02-08 22:49:00,
2013-02-08 17:51:00,76.8,71.9,29.98,NNW,327,5.0,9.0,85,0.00,,FEW,0.00,37.00,VWS V14.01,2013-02-08 22:51:00,
2013-02-08 17:52:00,76.7,71.9,29.98,WNW,290,5.0,8.0,85,0.00,,FEW,0.00,33.00,VWS V14.01,2013-02-08 22:52:00,
2013-02-08 17:54:00,76.7,71.9,29.98,WNW,290,7.0,9.0,85,0.00,,FEW,0.00,28.00,VWS V14.01,2013-02-08 22:54:00,
2013-02-08 17:56:00,76.6,71.8,29.98,NW,318,4.0,9.0,85,0.00,,FEW,0.00,19.00,VWS V14.01,2013-02-08 22:56:00,
2013-02-08 17:57:00,76.5,71.7,29.98,NW,307,2.0,9.0,85,0.00,,FEW,0.00,19.00,VWS V14.01,2013-02-08 22:57:00,
2013-02-08 17:59:00,76.4,71.6,29.98,NW,319,2.0,9.0,85,0.00,,FEW,0.00,18.00,VWS V14.01,2013-02-08 22:59:00,
2013-02-08 18:01:00,76.4,71.6,29.99,NW,309,7.0,9.0,85,0.00,,FEW,0.00,14.00,VWS V14.01,2013-02-08 23:01:00,
2013-02-08 18:02:00,76.3,71.8,29.99,WSW,248,5.0,9.0,86,0.00,,FEW,0.00,14.00,VWS V14.01,2013-02-08 23:02:00,
2013-02-08 18:04:00,76.2,71.7,29.99,NNW,334,2.0,9.0,86,0.00,,FEW,0.00,12.00,VWS V14.01,2013-02-08 23:04:00,
2013-02-08 18:06:00,76.2,71.7,29.99,WNW,284,3.0,9.0,86,0.00,,FEW,0.00,11.00,VWS V14.01,2013-02-08 23:06:00,
2013-02-08 18:07:00,76.1,71.6,29.99,NNW,338,5.0,9.0,86,0.00,,FEW,0.00,9.00,VWS V14.01,2013-02-08 23:07:00,
2013-02-08 18:09:00,76.0,71.5,29.99,WNW,303,6.0,9.0,86,0.00,,FEW,0.00,7.00,VWS V14.01,2013-02-08 23:09:00,
2013-02-08 18:11:00,75.9,71.4,29.99,NNW,329,4.0,9.0,86,0.00,,FEW,0.00,5.00,VWS V14.01,2013-02-08 23:11:00,
2013-02-08 18:12:00,75.8,71.3,29.99,NW,312,6.0,9.0,86,0.00,,FEW,0.00,5.00,VWS V14.01,2013-02-08 23:12:00,
2013-02-08 18:14:00,75.8,71.7,29.99,WNW,286,8.0,9.0,87,0.00,,FEW,0.00,0.00,VWS V14.01,2013-02-08 23:14:00,
2013-02-08 18:16:00,75.7,71.6,29.99,NNW,336,4.0,9.0,87,0.00,,FEW,0.00,0.00,VWS V14.01,2013-02-08 23:16:00,
2013-02-08 18:17:00,75.7,71.6,29.99,NW,313,3.0,9.0,87,0.00,,FEW,0.00,0.00,VWS V14.01,2013-02-08 23:17:00,
2013-02-08 18:20:00,75.6,71.5,29.99,NW,304,3.0,9.0,87,0.00,,FEW,0.00,0.00,VWS V14.01,2013-02-08 23:20:00,
2013-02-08 18:21:00,75.5,71.4,29.99,North,9,6.0,9.0,87,0.00,,FEW,0.00,0.00,VWS V14.01,2013-02-08 23:21:00,
2013-02-08 18:22:00,75.5,71.4,29.99,WNW,300,5.0,6.0,87,0.00,,FEW,0.00,0.00,VWS V14.01,2013-02-08 23:22:00,
2013-02-08 18:25:00,75.4,71.3,29.99,NW,319,7.0,8.0,87,0.00,,FEW,0.00,0.00,VWS V14.01,2013-02-08 23:25:00,
2013-02-08 18:26:00,75.4,71.6,29.99,NW,321,5.0,8.0,88,0.00,,FEW,0.00,0.00,VWS V14.01,2013-02-08 23:26:00,
2013-02-08 18:27:00,75.3,71.5,29.99,WNW,292,2.0,8.0,88,0.00,,FEW,0.00,0.00,VWS V14.01,2013-02-08 23:27:00,
2013-02-08 18:28:00,75.3,71.5,29.99,NNW,330,8.0,8.0,88,0.00,,FEW,0.00,0.00,VWS V14.01,2013-02-08 23:28:00,
2013-02-08 18:30:00,75.3,71.5,29.99,North,355,6.0,8.0,88,0.00,,FEW,0.00,0.00,VWS V14.01,2013-02-08 23:30:00,
2013-02-08 18:31:00,75.2,71.4,29.99,WNW,283,3.0,4.0,88,0.00,,FEW,0.00,0.00,VWS V14.01,2013-02-08 23:31:00,
2013-02-08 18:32:00,75.2,71.4,29.99,NNW,331,3.0,4.0,88,0.00,,FEW,0.00,0.00,VWS V14.01,2013-02-08 23:32:00,
2013-02-08 18:33:00,75.2,71.4,29.99,West,278,4.0,4.0,88,0.00,,FEW,0.00,0.00,VWS V14.01,2013-02-08 23:33:00,
2013-02-08 18:35:00,75.2,71.4,29.99,North,360,1.0,4.0,88,0.00,,FEW,0.00,0.00,VWS V14.01,2013-02-08 23:35:00,
2013-02-08 18:36:00,75.2,71.4,29.99,NW,325,3.0,4.0,88,0.00,,FEW,0.00,0.00,VWS V14.01,2013-02-08 23:36:00,
2013-02-08 18:37:00,75.2,71.4,29.99,NW,321,2.0,8.0,88,0.00,,FEW,0.00,0.00,VWS V14.01,2013-02-08 23:37:00,
2013-02-08 18:38:00,75.1,71.3,29.99,NNW,347,6.0,8.0,88,0.00,,FEW,0.00,0.00,VWS V14.01,2013-02-08 23:38:00,
2013-02-08 18:40:00,75.1,71.3,29.99,NW,326,6.0,8.0,88,0.00,,FEW,0.00,0.00,VWS V14.01,2013-02-08 23:40:00,
2013-02-08 18:41:00,75.1,71.6,29.99,NW,326,2.0,4.0,89,0.00,,FEW,0.00,0.00,VWS V14.01,2013-02-08 23:41:00,
2013-02-08 18:42:00,75.1,71.6,29.99,WNW,288,3.0,5.0,89,0.00,,FEW,0.00,0.00,VWS V14.01,2013-02-08 23:42:00,
2013-02-08 18:43:00,75.0,71.5,29.99,NW,304,4.0,5.0,89,0.00,,FEW,0.00,0.00,VWS V14.01,2013-02-08 23:43:00,
2013-02-08 18:46:00,75.0,71.5,30.00,WNW,283,2.0,7.0,89,0.00,,FEW,0.00,0.00,VWS V14.01,2013-02-08 23:46:00,
2013-02-08 18:47:00,75.0,71.5,30.00,West,276,3.0,7.0,89,0.00,,FEW,0.00,0.00,VWS V14.01,2013-02-08 23:47:00,
2013-02-08 18:48:00,74.9,71.4,30.00,WNW,301,4.0,8.0,89,0.00,,FEW,0.00,0.00,VWS V14.01,2013-02-08 23:48:00,
2013-02-08 18:51:00,74.9,71.4,30.00,NW,311,5.0,8.0,89,0.00,,FEW,0.00,0.00,VWS V14.01,2013-02-08 23:51:00,
2013-02-08 18:52:00,74.9,71.4,30.00,NW,311,5.0,5.0,89,0.00,,FEW,0.00,0.00,VWS V14.01,2013-02-08 23:52:00,
2013-02-08 18:53:00,74.9,71.4,30.00,NW,306,5.0,5.0,89,0.00,,FEW,0.00,0.00,VWS V14.01,2013-02-08 23:53:00,
2013-02-08 18:56:00,74.8,71.3,30.00,NW,319,5.0,7.0,89,0.00,,FEW,0.00,0.00,VWS V14.01,2013-02-08 23:56:00,
2013-02-08 18:57:00,74.8,71.3,30.00,NNW,331,2.0,7.0,89,0.00,,FEW,0.00,0.00,VWS V14.01,2013-02-08 23:57:00,
2013-02-08 18:58:00,74.8,71.3,30.00,WNW,303,2.0,7.0,89,0.00,,FEW,0.00,0.00,VWS V14.01,2013-02-08 23:58:00,
2013-02-08 19:01:00,74.7,71.2,30.00,NW,321,2.0,2.0,89,0.00,,FEW,0.00,0.00,VWS V14.01,2013-02-09 00:01:00,
2013-02-08 19:02:00,74.7,71.2,30.00,NNW,333,5.0,5.0,89,0.00,,FEW,0.00,0.00,VWS V14.01,2013-02-09 00:02:00,
2013-02-08 19:04:00,74.6,71.2,30.00,NW,308,2.0,8.0,89,0.00,,FEW,0.00,0.00,VWS V14.01,2013-02-09 00:04:00,
2013-02-08 19:06:00,74.6,71.2,30.00,West,277,3.0,8.0,89,0.00,,FEW,0.00,0.00,VWS V14.01,2013-02-09 00:06:00,
2013-02-08 19:07:00,74.6,71.2,30.00,NNW,327,2.0,8.0,89,0.00,,FEW,0.00,0.00,VWS V14.01,2013-02-09 00:07:00,
2013-02-08 19:09:00,74.5,71.4,30.00,North,355,2.0,8.0,90,0.00,,FEW,0.00,0.00,VWS V14.01,2013-02-09 00:09:00,
2013-02-08 19:11:00,74.5,71.4,30.00,North,360,2.0,3.0,90,0.00,,FEW,0.00,0.00,VWS V14.01,2013-02-09 00:11:00,
2013-02-08 19:12:00,74.5,71.4,30.00,WNW,295,5.0,5.0,90,0.00,,FEW,0.00,0.00,VWS V14.01,2013-02-09 00:12:00,
2013-02-08 19:14:00,74.4,71.3,30.00,NNW,344,6.0,6.0,90,0.00,,FEW,0.00,0.00,VWS V14.01,2013-02-09 00:14:00,
2013-02-08 19:16:00,74.4,71.3,30.00,NNW,348,2.0,6.0,90,0.00,,FEW,0.00,0.00,VWS V14.01,2013-02-09 00:16:00,
2013-02-08 19:17:00,74.4,71.3,30.00,NW,318,4.0,6.0,90,0.00,,FEW,0.00,0.00,VWS V14.01,2013-02-09 00:17:00,
2013-02-08 19:19:00,74.4,71.3,30.00,North,355,2.0,6.0,90,0.00,,FEW,0.00,0.00,VWS V14.01,2013-02-09 00:19:00,
2013-02-08 19:21:00,74.3,71.2,30.00,NNW,348,5.0,5.0,90,0.00,,FEW,0.00,0.00,VWS V14.01,2013-02-09 00:21:00,
2013-02-08 19:22:00,74.3,71.2,30.00,NW,317,2.0,5.0,90,0.00,,FEW,0.00,0.00,VWS V14.01,2013-02-09 00:22:00,
2013-02-08 19:23:00,74.3,71.2,30.00,WNW,287,6.0,6.0,90,0.00,,FEW,0.00,0.00,VWS V14.01,2013-02-09 00:23:00,
2013-02-08 19:24:00,74.2,71.1,30.00,NNW,341,5.0,7.0,90,0.00,,FEW,0.00,0.00,VWS V14.01,2013-02-09 00:24:00,
2013-02-08 19:26:00,74.2,71.1,30.00,North,355,3.0,7.0,90,0.00,,FEW,0.00,0.00,VWS V14.01,2013-02-09 00:26:00,
2013-02-08 19:27:00,74.2,71.1,30.00,North,355,4.0,7.0,90,0.00,,FEW,0.00,0.00,VWS V14.01,2013-02-09 00:27:00,
2013-02-08 19:28:00,74.1,71.3,30.00,WNW,284,1.0,7.0,91,0.00,,FEW,0.00,0.00,VWS V14.01,2013-02-09 00:28:00,
2013-02-08 19:29:00,74.1,71.3,30.00,NNW,334,2.0,7.0,91,0.00,,FEW,0.00,0.00,VWS V14.01,2013-02-09 00:29:00,
2013-02-08 19:32:00,74.0,70.9,30.00,NNW,329,5.0,6.0,90,0.00,,FEW,0.00,0.00,VWS V14.01,2013-02-09 00:32:00,
2013-02-08 19:33:00,74.0,71.2,30.00,WNW,302,4.0,6.0,91,0.00,,FEW,0.00,0.00,VWS V14.01,2013-02-09 00:33:00,
2013-02-08 19:35:00,74.0,71.2,30.00,West,281,3.0,8.0,91,0.00,,FEW,0.00,0.00,VWS V14.01,2013-02-09 00:35:00,
2013-02-08 19:37:00,73.9,71.1,30.00,NNW,331,3.0,8.0,91,0.00,,FEW,0.00,0.00,VWS V14.01,2013-02-09 00:37:00,
2013-02-08 19:38:00,73.9,71.1,30.00,NNW,342,5.0,8.0,91,0.00,,FEW,0.00,0.00,VWS V14.01,2013-02-09 00:38:00,
2013-02-08 19:40:00,73.9,71.1,30.00,NNW,340,4.0,8.0,91,0.00,,FEW,0.00,0.00,VWS V14.01,2013-02-09 00:40:00,
2013-02-08 19:42:00,73.9,71.1,30.00,NW,320,2.0,5.0,91,0.00,,FEW,0.00,0.00,VWS V14.01,2013-02-09 00:42:00,
2013-02-08 19:43:00,73.8,71.0,30.00,NW,307,5.0,5.0,91,0.00,,FEW,0.00,0.00,VWS V14.01,2013-02-09 00:43:00,
2013-02-08 19:45:00,73.8,71.0,30.00,NW,307,1.0,7.0,91,0.00,,FEW,0.00,0.00,VWS V14.01,2013-02-09 00:45:00,
2013-02-08 19:47:00,73.8,71.0,30.01,NW,304,4.0,7.0,91,0.00,,FEW,0.00,0.00,VWS V14.01,2013-02-09 00:47:00,
2013-02-08 19:49:00,73.8,71.0,30.01,NW,318,4.0,7.0,91,0.00,,FEW,0.00,0.00,VWS V14.01,2013-02-09 00:49:00,
2013-02-08 19:50:00,73.7,70.9,30.01,NNW,327,3.0,7.0,91,0.00,,FEW,0.00,0.00,VWS V14.01,2013-02-09 00:50:00,
2013-02-08 19:52:00,73.7,70.9,30.01,NNW,330,2.0,5.0,91,0.00,,FEW,0.00,0.00,VWS V14.01,2013-02-09 00:52:00,
2013-02-08 19:54:00,73.7,70.9,30.01,NNW,329,2.0,5.0,91,0.00,,FEW,0.00,0.00,VWS V14.01,2013-02-09 00:54:00,
2013-02-08 19:55:00,73.7,71.2,30.01,NNW,340,2.0,5.0,92,0.00,,FEW,0.00,0.00,VWS V14.01,2013-02-09 00:55:00,
2013-02-08 19:57:00,73.6,71.1,30.01,NNW,338,3.0,5.0,92,0.00,,FEW,0.00,0.00,VWS V14.01,2013-02-09 00:57:00,
2013-02-08 19:58:00,73.6,71.1,30.01,NNW,333,2.0,5.0,92,0.00,,FEW,0.00,0.00,VWS V14.01,2013-02-09 00:58:00,
2013-02-08 19:59:00,73.6,71.1,30.01,NW,306,2.0,5.0,92,0.00,,FEW,0.00,0.00,VWS V14.01,2013-02-09 00:59:00,
2013-02-08 20:00:00,73.6,71.1,30.02,NW,321,2.0,5.0,92,0.00,,FEW,0.00,0.00,VWS V14.01,2013-02-09 01:00:00,
2013-02-08 20:03:00,73.6,71.1,30.02,WNW,298,2.0,4.0,92,0.00,,FEW,0.00,0.00,VWS V14.01,2013-02-09 01:03:00,
2013-02-08 20:04:00,73.5,71.0,30.02,NW,306,6.0,7.0,92,0.00,,FEW,0.00,0.00,VWS V14.01,2013-02-09 01:04:00,
2013-02-08 20:06:00,73.5,71.0,30.02,WNW,294,2.0,7.0,92,0.00,,FEW,0.00,0.00,VWS V14.01,2013-02-09 01:06:00,
2013-02-08 20:08:00,73.5,71.0,30.02,NNW,332,2.0,7.0,92,0.00,,FEW,0.00,0.00,VWS V14.01,2013-02-09 01:08:00,
2013-02-08 20:09:00,73.4,70.9,30.02,WNW,302,4.0,7.0,92,0.00,,FEW,0.00,0.00,VWS V14.01,2013-02-09 01:09:00,
2013-02-08 20:11:00,73.4,70.9,30.02,NNW,341,2.0,7.0,92,0.00,,FEW,0.00,0.00,VWS V14.01,2013-02-09 01:11:00,
2013-02-08 20:13:00,73.3,70.8,30.02,WNW,297,3.0,4.0,92,0.00,,FEW,0.00,0.00,VWS V14.01,2013-02-09 01:13:00,
2013-02-08 20:14:00,73.3,70.8,30.02,NW,315,3.0,5.0,92,0.00,,FEW,0.00,0.00,VWS V14.01,2013-02-09 01:14:00,
2013-02-08 20:16:00,73.3,70.8,30.02,WNW,291,1.0,5.0,92,0.00,,FEW,0.00,0.00,VWS V14.01,2013-02-09 01:16:00,
2013-02-08 20:18:00,73.3,70.8,30.02,NW,310,5.0,5.0,92,0.00,,FEW,0.00,0.00,VWS V14.01,2013-02-09 01:18:00,
2013-02-08 20:19:00,73.3,70.8,30.02,WNW,300,2.0,5.0,92,0.00,,FEW,0.00,0.00,VWS V14.01,2013-02-09 01:19:00,
2013-02-08 20:21:00,73.3,70.8,30.02,NNW,336,1.0,5.0,92,0.00,,FEW,0.00,0.00,VWS V14.01,2013-02-09 01:21:00,
2013-02-08 20:23:00,73.3,70.8,30.02,NW,320,1.0,6.0,92,0.00,,FEW,0.00,0.00,VWS V14.01,2013-02-09 01:23:00,
2013-02-08 20:25:00,73.2,70.7,30.02,WNW,300,1.0,6.0,92,0.00,,FEW,0.00,0.00,VWS V14.01,2013-02-09 01:25:00,
2013-02-08 20:26:00,73.2,70.7,30.02,NW,312,1.0,6.0,92,0.00,,FEW,0.00,0.00,VWS V14.01,2013-02-09 01:26:00,
2013-02-08 20:28:00,73.2,70.7,30.02,NW,317,3.0,6.0,92,0.00,,FEW,0.00,0.00,VWS V14.01,2013-02-09 01:28:00,
2013-02-08 20:30:00,73.1,70.6,30.02,WNW,289,2.0,6.0,92,0.00,,FEW,0.00,0.00,VWS V14.01,2013-02-09 01:30:00,
2013-02-08 20:31:00,73.1,70.6,30.02,NW,307,0.0,6.0,92,0.00,,FEW,0.00,0.00,VWS V14.01,2013-02-09 01:31:00,
2013-02-08 20:33:00,73.0,70.5,30.02,NW,308,1.0,4.0,92,0.00,,FEW,0.00,0.00,VWS V14.01,2013-02-09 01:33:00,
2013-02-08 20:35:00,73.0,70.5,30.02,NW,305,3.0,4.0,92,0.00,,FEW,0.00,0.00,VWS V14.01,2013-02-09 01:35:00,
2013-02-08 20:36:00,73.0,70.5,30.02,WNW,302,1.0,4.0,92,0.00,,FEW,0.00,0.00,VWS V14.01,2013-02-09 01:36:00,
2013-02-08 20:38:00,72.9,70.4,30.02,WNW,302,1.0,4.0,92,0.00,,FEW,0.00,0.00,VWS V14.01,2013-02-09 01:38:00,
2013-02-08 20:39:00,72.9,70.4,30.02,WNW,302,1.0,4.0,92,0.00,,FEW,0.00,0.00,VWS V14.01,2013-02-09 01:39:00,
2013-02-08 20:40:00,72.9,70.4,30.02,West,271,0.0,4.0,92,0.00,,FEW,0.00,0.00,VWS V14.01,2013-02-09 01:40:00,
2013-02-08 20:41:00,72.9,70.4,30.02,NW,321,3.0,3.0,92,0.00,,FEW,0.00,0.00,VWS V14.01,2013-02-09 01:41:00,
2013-02-08 20:44:00,72.9,70.4,30.02,WNW,288,2.0,5.0,92,0.00,,FEW,0.00,0.00,VWS V14.01,2013-02-09 01:44:00,
2013-02-08 20:45:00,72.8,70.3,30.02,WNW,303,2.0,5.0,92,0.00,,FEW,0.00,0.00,VWS V14.01,2013-02-09 01:45:00,
2013-02-08 20:46:00,72.8,70.3,30.02,NNE,15,1.0,5.0,92,0.00,,FEW,0.00,0.00,VWS V14.01,2013-02-09 01:46:00,
2013-02-08 20:49:00,72.8,70.3,30.02,WNW,290,2.0,5.0,92,0.00,,FEW,0.00,0.00,VWS V14.01,2013-02-09 01:49:00,
2013-02-08 20:50:00,72.8,70.3,30.02,NW,308,1.0,5.0,92,0.00,,FEW,0.00,0.00,VWS V14.01,2013-02-09 01:50:00,
2013-02-08 20:51:00,72.8,70.3,30.02,WNW,296,1.0,2.0,92,0.00,,FEW,0.00,0.00,VWS V14.01,2013-02-09 01:51:00,
2013-02-08 20:54:00,72.8,70.3,30.02,WSW,251,2.0,4.0,92,0.00,,FEW,0.00,0.00,VWS V14.01,2013-02-09 01:54:00,
2013-02-08 20:55:00,72.8,70.3,30.02,NW,306,0.0,4.0,92,0.00,,FEW,0.00,0.00,VWS V14.01,2013-02-09 01:55:00,
2013-02-08 20:56:00,72.8,70.3,30.02,NW,311,4.0,4.0,92,0.00,,FEW,0.00,0.00,VWS V14.01,2013-02-09 01:56:00,
2013-02-08 20:59:00,72.8,70.3,30.02,West,265,0.0,4.0,92,0.00,,FEW,0.00,0.00,VWS V14.01,2013-02-09 01:59:00,
2013-02-08 21:00:00,72.8,70.3,30.02,WNW,290,1.0,4.0,92,0.00,,FEW,0.00,0.00,VWS V14.01,2013-02-09 02:00:00,
2013-02-08 21:01:00,72.7,70.2,30.02,NW,307,1.0,1.0,92,0.00,,FEW,0.00,0.00,VWS V14.01,2013-02-09 02:01:00,
2013-02-08 21:04:00,72.8,70.3,30.02,NW,306,0.0,3.0,92,0.00,,FEW,0.00,0.00,VWS V14.01,2013-02-09 02:04:00,
2013-02-08 21:06:00,72.7,70.2,30.02,NW,306,1.0,3.0,92,0.00,,FEW,0.00,0.00,VWS V14.01,2013-02-09 02:06:00,
2013-02-08 21:09:00,72.7,70.2,30.02,WNW,286,0.0,4.0,92,0.00,,FEW,0.00,0.00,VWS V14.01,2013-02-09 02:09:00,
2013-02-08 21:11:00,72.7,70.2,30.02,WNW,302,1.0,5.0,92,0.00,,FEW,0.00,0.00,VWS V14.01,2013-02-09 02:11:00,
2013-02-08 21:12:00,72.7,70.2,30.02,WNW,299,2.0,3.0,92,0.00,,FEW,0.00,0.00,VWS V14.01,2013-02-09 02:12:00,
2013-02-08 21:14:00,72.7,70.2,30.02,WNW,290,3.0,4.0,92,0.00,,FEW,0.00,0.00,VWS V14.01,2013-02-09 02:14:00,
2013-02-08 21:15:00,72.8,70.3,30.02,WNW,303,2.0,4.0,92,0.00,,FEW,0.00,0.00,VWS V14.01,2013-02-09 02:15:00,
2013-02-08 21:16:00,72.8,70.3,30.03,WNW,288,3.0,4.0,92,0.00,,FEW,0.00,0.00,VWS V14.01,2013-02-09 02:16:00,
2013-02-08 21:17:00,72.7,70.2,30.03,NW,304,1.0,6.0,92,0.00,,FEW,0.00,0.00,VWS V14.01,2013-02-09 02:17:00,
2013-02-08 21:19:00,72.7,70.2,30.03,NW,318,3.0,6.0,92,0.00,,FEW,0.00,0.00,VWS V14.01,2013-02-09 02:19:00,
2013-02-08 21:20:00,72.8,70.3,30.03,WNW,298,4.0,6.0,92,0.00,,FEW,0.00,0.00,VWS V14.01,2013-02-09 02:20:00,
2013-02-08 21:21:00,72.7,70.2,30.03,NW,323,4.0,6.0,92,0.00,,FEW,0.00,0.00,VWS V14.01,2013-02-09 02:21:00,
2013-02-08 21:22:00,72.7,70.2,30.03,WNW,296,5.0,5.0,92,0.00,,FEW,0.00,0.00,VWS V14.01,2013-02-09 02:22:00,
2013-02-08 21:24:00,72.7,70.2,30.03,NW,325,3.0,6.0,92,0.00,,FEW,0.00,0.00,VWS V14.01,2013-02-09 02:24:00,
2013-02-08 21:25:00,72.7,70.2,30.03,West,269,3.0,6.0,92,0.00,,FEW,0.00,0.00,VWS V14.01,2013-02-09 02:25:00,
2013-02-08 21:26:00,72.7,70.2,30.03,WNW,294,3.0,6.0,92,0.00,,FEW,0.00,0.00,VWS V14.01,2013-02-09 02:26:00,
2013-02-08 21:27:00,72.7,70.2,30.03,NW,304,3.0,6.0,92,0.00,,FEW,0.00,0.00,VWS V14.01,2013-02-09 02:27:00,
2013-02-08 21:29:00,72.7,70.2,30.03,WNW,300,3.0,6.0,92,0.00,,FEW,0.00,0.00,VWS V14.01,2013-02-09 02:29:00,
2013-02-08 21:30:00,72.7,70.2,30.03,NW,316,0.0,6.0,92,0.00,,FEW,0.00,0.00,VWS V14.01,2013-02-09 02:30:00,
2013-02-08 21:31:00,72.7,70.2,30.03,NW,309,2.0,6.0,92,0.00,,FEW,0.00,0.00,VWS V14.01,2013-02-09 02:31:00,
2013-02-08 21:32:00,72.7,70.2,30.03,NW,318,5.0,5.0,92,0.00,,FEW,0.00,0.00,VWS V14.01,2013-02-09 02:32:00,
2013-02-08 21:34:00,72.8,70.3,30.03,WNW,298,2.0,5.0,92,0.00,,FEW,0.00,0.00,VWS V14.01,2013-02-09 02:34:00,
2013-02-08 21:35:00,72.8,70.3,30.03,NW,306,4.0,5.0,92,0.00,,FEW,0.00,0.00,VWS V14.01,2013-02-09 02:35:00,
2013-02-08 21:36:00,72.8,70.3,30.03,WNW,292,3.0,5.0,92,0.00,,FEW,0.00,0.00,VWS V14.01,2013-02-09 02:36:00,
2013-02-08 21:37:00,72.8,70.3,30.03,WNW,292,3.0,5.0,92,0.00,,FEW,0.00,0.00,VWS V14.01,2013-02-09 02:37:00,
2013-02-08 21:39:00,72.8,70.3,30.03,NW,315,3.0,5.0,92,0.00,,FEW,0.00,0.00,VWS V14.01,2013-02-09 02:39:00,
2013-02-08 21:40:00,72.8,70.3,30.03,NW,319,2.0,5.0,92,0.00,,FEW,0.00,0.00,VWS V14.01,2013-02-09 02:40:00,
2013-02-08 21:41:00,72.8,70.3,30.03,WNW,290,0.0,5.0,92,0.00,,FEW,0.00,0.00,VWS V14.01,2013-02-09 02:41:00,
2013-02-08 21:42:00,72.8,70.3,30.03,WNW,294,2.0,2.0,92,0.00,,FEW,0.00,0.00,VWS V14.01,2013-02-09 02:42:00,
2013-02-08 21:44:00,72.8,70.3,30.03,WNW,301,3.0,4.0,92,0.00,,FEW,0.00,0.00,VWS V14.01,2013-02-09 02:44:00,
2013-02-08 21:46:00,72.8,70.3,30.03,WNW,296,1.0,5.0,92,0.00,,FEW,0.00,0.00,VWS V14.01,2013-02-09 02:46:00,
2013-02-08 21:47:00,72.8,70.3,30.03,WNW,287,4.0,6.0,92,0.00,,FEW,0.00,0.00,VWS V14.01,2013-02-09 02:47:00,
2013-02-08 21:49:00,72.8,70.3,30.03,WNW,296,4.0,6.0,92,0.00,,FEW,0.00,0.00,VWS V14.01,2013-02-09 02:49:00,
2013-02-08 21:51:00,72.8,70.3,30.03,NW,315,4.0,6.0,92,0.00,,FEW,0.00,0.00,VWS V14.01,2013-02-09 02:51:00,
2013-02-08 21:52:00,72.8,70.3,30.03,WNW,303,2.0,4.0,92,0.00,,FEW,0.00,0.00,VWS V14.01,2013-02-09 02:52:00,
2013-02-08 21:54:00,72.8,70.3,30.03,NW,304,3.0,5.0,92,0.00,,FEW,0.00,0.00,VWS V14.01,2013-02-09 02:54:00,
2013-02-08 21:56:00,72.8,70.3,30.03,NW,316,2.0,5.0,92,0.00,,FEW,0.00,0.00,VWS V14.01,2013-02-09 02:56:00,
2013-02-08 21:57:00,72.8,70.3,30.03,NW,311,1.0,5.0,92,0.00,,FEW,0.00,0.00,VWS V14.01,2013-02-09 02:57:00,
2013-02-08 22:00:00,72.8,70.3,30.03,WNW,291,3.0,6.0,92,0.00,,FEW,0.00,0.00,VWS V14.01,2013-02-09 03:00:00,
2013-02-08 22:01:00,72.9,70.4,30.03,NW,323,5.0,6.0,92,0.00,,FEW,0.00,0.00,VWS V14.01,2013-02-09 03:01:00,
2013-02-08 22:02:00,72.9,70.4,30.03,North,360,5.0,6.0,92,0.00,,FEW,0.00,0.00,VWS V14.01,2013-02-09 03:02:00,
2013-02-08 22:05:00,72.9,70.4,30.03,NW,314,3.0,6.0,92,0.00,,FEW,0.00,0.00,VWS V14.01,2013-02-09 03:05:00,
2013-02-08 22:06:00,72.9,70.4,30.03,WNW,284,3.0,6.0,92,0.00,,FEW,0.00,0.00,VWS V14.01,2013-02-09 03:06:00,
2013-02-08 22:07:00,72.9,70.4,30.03,WNW,302,6.0,6.0,92,0.00,,FEW,0.00,0.00,VWS V14.01,2013-02-09 03:07:00,
2013-02-08 22:10:00,72.9,70.4,30.03,WNW,299,1.0,6.0,92,0.00,,FEW,0.00,0.00,VWS V14.01,2013-02-09 03:10:00,
2013-02-08 22:12:00,72.9,70.4,30.03,WNW,300,5.0,5.0,92,0.00,,FEW,0.00,0.00,VWS V14.01,2013-02-09 03:12:00,
2013-02-08 22:15:00,72.9,70.4,30.03,NW,311,2.0,8.0,92,0.00,,FEW,0.00,0.00,VWS V14.01,2013-02-09 03:15:00,
2013-02-08 22:17:00,72.8,70.3,30.03,NW,313,6.0,8.0,92,0.00,,FEW,0.00,0.00,VWS V14.01,2013-02-09 03:17:00,
2013-02-08 22:20:00,72.8,70.3,30.03,NW,309,2.0,8.0,92,0.00,,FEW,0.00,0.00,VWS V14.01,2013-02-09 03:20:00,
2013-02-08 22:22:00,72.8,70.3,30.03,NW,306,6.0,6.0,92,0.00,,FEW,0.00,0.00,VWS V14.01,2013-02-09 03:22:00,
2013-02-08 22:25:00,72.7,70.2,30.03,NW,314,2.0,6.0,92,0.00,,FEW,0.00,0.00,VWS V14.01,2013-02-09 03:25:00,
2013-02-08 22:27:00,72.7,70.2,30.03,NW,309,2.0,6.0,92,0.00,,FEW,0.00,0.00,VWS V14.01,2013-02-09 03:27:00,
2013-02-08 22:30:00,72.6,70.2,30.03,NNW,327,1.0,6.0,92,0.00,,FEW,0.00,0.00,VWS V14.01,2013-02-09 03:30:00,
2013-02-08 22:32:00,72.6,69.8,30.03,NNW,329,3.0,3.0,91,0.00,,FEW,0.00,0.00,VWS V14.01,2013-02-09 03:32:00,
2013-02-08 22:35:00,72.6,69.8,30.03,NNW,327,0.0,5.0,91,0.00,,FEW,0.00,0.00,VWS V14.01,2013-02-09 03:35:00,
2013-02-08 22:37:00,72.6,69.8,30.03,West,275,3.0,5.0,91,0.00,,FEW,0.00,0.00,VWS V14.01,2013-02-09 03:37:00,
2013-02-08 22:41:00,72.5,69.7,30.03,NNW,336,3.0,6.0,91,0.00,,FEW,0.00,0.00,VWS V14.01,2013-02-09 03:41:00,
2013-02-08 22:42:00,72.5,69.7,30.03,NW,307,3.0,4.0,91,0.00,,FEW,0.00,0.00,VWS V14.01,2013-02-09 03:42:00,
2013-02-08 22:46:00,72.4,69.6,30.03,WNW,295,3.0,6.0,91,0.00,,FEW,0.00,0.00,VWS V14.01,2013-02-09 03:46:00,
2013-02-08 22:47:00,72.3,69.5,30.03,NW,321,4.0,6.0,91,0.00,,FEW,0.00,0.00,VWS V14.01,2013-02-09 03:47:00,
2013-02-08 22:48:00,72.3,69.5,30.03,WNW,299,3.0,6.0,91,0.00,,FEW,0.00,0.00,VWS V14.01,2013-02-09 03:48:00,
2013-02-08 22:51:00,72.3,69.5,30.03,NNW,328,5.0,6.0,91,0.00,,FEW,0.00,0.00,VWS V14.01,2013-02-09 03:51:00,
2013-02-08 22:52:00,72.4,69.6,30.03,NNE,22,2.0,5.0,91,0.00,,FEW,0.00,0.00,VWS V14.01,2013-02-09 03:52:00,
2013-02-08 22:53:00,72.4,69.6,30.03,NW,325,1.0,5.0,91,0.00,,FEW,0.00,0.00,VWS V14.01,2013-02-09 03:53:00,
2013-02-08 22:56:00,72.3,69.5,30.03,NNW,333,2.0,7.0,91,0.00,,FEW,0.00,0.00,VWS V14.01,2013-02-09 03:56:00,
2013-02-08 22:57:00,72.3,69.5,30.03,NW,317,3.0,7.0,91,0.00,,FEW,0.00,0.00,VWS V14.01,2013-02-09 03:57:00,
2013-02-08 22:58:00,72.3,69.5,30.03,NW,325,1.0,7.0,91,0.00,,FEW,0.00,0.00,VWS V14.01,2013-02-09 03:58:00,
2013-02-08 23:01:00,72.2,69.4,30.03,NW,323,5.0,7.0,91,0.00,,FEW,0.00,0.00,VWS V14.01,2013-02-09 04:01:00,
2013-02-08 23:03:00,72.2,69.4,30.03,NNW,342,4.0,5.0,91,0.00,,FEW,0.00,0.00,VWS V14.01,2013-02-09 04:03:00,
2013-02-08 23:06:00,72.2,69.4,30.03,NNW,347,4.0,5.0,91,0.00,,FEW,0.00,0.00,VWS V14.01,2013-02-09 04:06:00,
2013-02-08 23:08:00,72.2,69.4,30.03,NNW,342,2.0,5.0,91,0.00,,FEW,0.00,0.00,VWS V14.01,2013-02-09 04:08:00,
2013-02-08 23:11:00,72.1,69.0,30.03,NNW,339,4.0,8.0,90,0.00,,FEW,0.00,0.00,VWS V14.01,2013-02-09 04:11:00,
2013-02-08 23:13:00,72.1,69.0,30.03,NNW,342,5.0,6.0,90,0.00,,FEW,0.00,0.00,VWS V14.01,2013-02-09 04:13:00,
2013-02-08 23:14:00,72.1,69.0,30.03,NNW,340,3.0,6.0,90,0.00,,FEW,0.00,0.00,VWS V14.01,2013-02-09 04:14:00,
2013-02-08 23:16:00,72.0,68.9,30.03,NNW,328,3.0,6.0,90,0.00,,FEW,0.00,0.00,VWS V14.01,2013-02-09 04:16:00,
2013-02-08 23:18:00,72.1,69.0,30.03,NW,322,6.0,7.0,90,0.00,,FEW,0.00,0.00,VWS V14.01,2013-02-09 04:18:00,
2013-02-08 23:19:00,72.1,69.3,30.03,NW,307,9.0,9.0,91,0.00,,FEW,0.00,0.00,VWS V14.01,2013-02-09 04:19:00,
2013-02-08 23:21:00,72.0,68.9,30.03,WNW,301,4.0,4.0,90,0.00,,FEW,0.00,0.00,VWS V14.01,2013-02-09 04:21:00,
2013-02-08 23:23:00,72.0,68.9,30.03,NNW,339,4.0,8.0,90,0.00,,FEW,0.00,0.00,VWS V14.01,2013-02-09 04:23:00,
2013-02-08 23:24:00,72.0,68.9,30.03,NW,312,4.0,8.0,90,0.00,,FEW,0.00,0.00,VWS V14.01,2013-02-09 04:24:00,
2013-02-08 23:26:00,72.0,68.9,30.03,NNW,348,4.0,8.0,90,0.00,,FEW,0.00,0.00,VWS V14.01,2013-02-09 04:26:00,
2013-02-08 23:28:00,72.0,68.9,30.03,NNW,344,2.0,8.0,90,0.00,,FEW,0.00,0.00,VWS V14.01,2013-02-09 04:28:00,
2013-02-08 23:29:00,72.0,68.9,30.03,North,351,4.0,8.0,90,0.00,,FEW,0.00,0.00,VWS V14.01,2013-02-09 04:29:00,
2013-02-08 23:31:00,72.0,68.9,30.03,NNW,342,6.0,6.0,90,0.00,,FEW,0.00,0.00,VWS V14.01,2013-02-09 04:31:00,
2013-02-08 23:33:00,72.0,68.9,30.03,North,355,5.0,9.0,90,0.00,,FEW,0.00,0.00,VWS V14.01,2013-02-09 04:33:00,
2013-02-08 23:34:00,72.0,68.9,30.03,North,5,4.0,9.0,90,0.00,,FEW,0.00,0.00,VWS V14.01,2013-02-09 04:34:00,
2013-02-08 23:36:00,71.9,68.8,30.03,North,355,2.0,9.0,90,0.00,,FEW,0.00,0.00,VWS V14.01,2013-02-09 04:36:00,
2013-02-08 23:38:00,71.9,69.1,30.03,NNW,330,3.0,9.0,91,0.00,,FEW,0.00,0.00,VWS V14.01,2013-02-09 04:38:00,
2013-02-08 23:39:00,71.9,68.8,30.03,NNW,335,4.0,9.0,90,0.00,,FEW,0.00,0.00,VWS V14.01,2013-02-09 04:39:00,
2013-02-08 23:42:00,71.8,68.7,30.03,NNW,327,6.0,7.0,90,0.00,,FEW,0.00,0.00,VWS V14.01,2013-02-09 04:42:00,
2013-02-08 23:43:00,71.7,68.6,30.03,NNW,327,4.0,7.0,90,0.00,,FEW,0.00,0.00,VWS V14.01,2013-02-09 04:43:00,
2013-02-08 23:44:00,71.7,68.6,30.03,NNW,348,4.0,7.0,90,0.00,,FEW,0.00,0.00,VWS V14.01,2013-02-09 04:44:00,
2013-02-08 23:45:00,71.7,68.6,30.03,NW,309,3.0,7.0,90,0.00,,FEW,0.00,0.00,VWS V14.01,2013-02-09 04:45:00,
2013-02-08 23:47:00,71.6,68.5,30.03,NNW,329,4.0,7.0,90,0.00,,FEW,0.00,0.00,VWS V14.01,2013-02-09 04:47:00,
2013-02-08 23:49:00,71.5,68.4,30.03,NW,307,3.0,7.0,90,0.00,,FEW,0.00,0.00,VWS V14.01,2013-02-09 04:49:00,
2013-02-08 23:50:00,71.4,68.3,30.03,NNW,344,5.0,7.0,90,0.00,,FEW,0.00,0.00,VWS V14.01,2013-02-09 04:50:00,
2013-02-08 23:52:00,71.2,67.8,30.03,NW,317,4.0,7.0,89,0.00,,FEW,0.00,0.00,VWS V14.01,2013-02-09 04:52:00,
2013-02-08 23:54:00,71.1,67.7,30.03,NNW,339,4.0,7.0,89,0.00,,FEW,0.00,0.00,VWS V14.01,2013-02-09 04:54:00,
2013-02-08 23:55:00,71.1,67.7,30.03,North,349,4.0,7.0,89,0.00,,FEW,0.00,0.00,VWS V14.01,2013-02-09 04:55:00,
2013-02-08 23:57:00,71.0,67.3,30.03,NNW,341,5.0,7.0,88,0.00,,FEW,0.00,0.00,VWS V14.01,2013-02-09 04:57:00,
2013-02-08 23:59:00,70.9,67.2,30.03,NNW,348,4.0,8.0,88,0.00,,FEW,0.00,0.00,VWS V14.01,2013-02-09 04:59:00,